| time (UTC) | temp F | wind direction | speed MPH | gust MPH | rain 1hr in | rain 24hr in | rain mn in | humidity % | barometer mb |
| 20260906210425 | 90 | 123 | 11.0 | 24.0 | 0.00 | 0.00 | 0.00 | 33 | 1013.8 |
| 20260906210204 | 90 | 123 | 14.0 | 24.0 | 0.00 | 0.00 | 0.00 | 33 | 1013.9 |
| 20260906210004 | 90 | 120 | 11.0 | 24.0 | 0.00 | 0.00 | 0.00 | 33 | 1013.9 |
| 20260906205804 | 90 | 122 | 15.0 | 24.0 | 0.00 | 0.00 | 0.00 | 33 | 1013.9 |
| 20260906205604 | 90 | 120 | 16.0 | 24.0 | 0.00 | 0.00 | 0.00 | 34 | 1013.8 |
| 20260906205404 | 90 | 123 | 10.0 | 21.0 | 0.00 | 0.00 | 0.00 | 34 | 1013.9 |
| 20260906205204 | 90 | 130 | 10.0 | 21.0 | 0.00 | 0.00 | 0.00 | 33 | 1013.9 |
| 20260906205004 | 90 | 132 | 10.0 | 21.0 | 0.00 | 0.00 | 0.00 | 34 | 1014.0 |
| 20260906204804 | 89 | 135 | 16.0 | 21.0 | 0.00 | 0.00 | 0.00 | 34 | 1014.0 |
| 20260906204604 | 89 | 143 | 11.0 | 21.0 | 0.00 | 0.00 | 0.00 | 34 | 1013.9 |
| 20260906204425 | 90 | 145 | 14.0 | 24.0 | 0.00 | 0.00 | 0.00 | 34 | 1013.9 |
| 20260906204204 | 89 | 145 | 13.0 | 24.0 | 0.00 | 0.00 | 0.00 | 34 | 1014.0 |
| 20260906204025 | 89 | 146 | 12.0 | 24.0 | 0.00 | 0.00 | 0.00 | 34 | 1014.0 |
| 20260906203804 | 89 | 143 | 13.0 | 24.0 | 0.00 | 0.00 | 0.00 | 34 | 1013.9 |
| 20260906203604 | 89 | 136 | 18.0 | 24.0 | 0.00 | 0.00 | 0.00 | 34 | 1014.0 |
| 20260906203404 | 89 | 132 | 15.0 | 26.0 | 0.00 | 0.00 | 0.00 | 34 | 1014.0 |
| 20260906203204 | 89 | 134 | 14.0 | 26.0 | 0.00 | 0.00 | 0.00 | 34 | 1014.1 |
| 20260906203004 | 89 | 135 | 10.0 | 26.0 | 0.00 | 0.00 | 0.00 | 34 | 1014.1 |
| 20260906202804 | 89 | 134 | 12.0 | 27.0 | 0.00 | 0.00 | 0.00 | 34 | 1014.0 |
| 20260906202604 | 89 | 134 | 16.0 | 27.0 | 0.00 | 0.00 | 0.00 | 34 | 1014.1 |
| 20260906202425 | 89 | 132 | 16.0 | 27.0 | 0.00 | 0.00 | 0.00 | 34 | 1014.0 |
| 20260906202204 | 89 | 127 | 17.0 | 27.0 | 0.00 | 0.00 | 0.00 | 34 | 1014.1 |
| 20260906202025 | 89 | 121 | 16.0 | 27.0 | 0.00 | 0.00 | 0.00 | 34 | 1014.1 |
| 20260906201804 | 89 | 122 | 11.0 | 25.0 | 0.00 | 0.00 | 0.00 | 34 | 1014.0 |
| 20260906201604 | 89 | 122 | 10.0 | 25.0 | 0.00 | 0.00 | 0.00 | 34 | 1014.2 |
| 20260906201404 | 89 | 120 | 15.0 | 25.0 | 0.00 | 0.00 | 0.00 | 34 | 1014.1 |
| 20260906201204 | 89 | 116 | 12.0 | 25.0 | 0.00 | 0.00 | 0.00 | 34 | 1014.2 |
| 20260906201025 | 89 | 117 | 14.0 | 24.0 | 0.00 | 0.00 | 0.00 | 34 | 1014.1 |
| 20260906200804 | 89 | 117 | 12.0 | 24.0 | 0.00 | 0.00 | 0.00 | 34 | 1014.1 |
| 20260906200604 | 89 | 123 | 11.0 | 24.0 | 0.00 | 0.00 | 0.00 | 34 | 1014.1 |
| 20260906200404 | 89 | 121 | 15.0 | 24.0 | 0.00 | 0.00 | 0.00 | 34 | 1014.1 |
| 20260906200225 | 89 | 117 | 10.0 | 24.0 | 0.00 | 0.00 | 0.00 | 34 | 1014.1 |
| 20260906200004 | 90 | 113 | 12.0 | 24.0 | 0.00 | 0.00 | 0.00 | 34 | 1014.1 |
| 20260906195825 | 89 | 112 | 16.0 | 24.0 | 0.00 | 0.00 | 0.00 | 35 | 1014.2 |
| 20260906195604 | 89 | 107 | 14.0 | 23.0 | 0.00 | 0.00 | 0.00 | 35 | 1014.1 |
| 20260906195404 | 89 | 113 | 14.0 | 24.0 | 0.00 | 0.00 | 0.00 | 34 | 1014.1 |
| 20260906195225 | 89 | 118 | 14.0 | 32.0 | 0.00 | 0.00 | 0.00 | 35 | 1014.1 |
| 20260906195004 | 89 | 124 | 13.0 | 32.0 | 0.00 | 0.00 | 0.00 | 35 | 1014.2 |
| 20260906194804 | 89 | 123 | 13.0 | 32.0 | 0.00 | 0.00 | 0.00 | 34 | 1014.3 |
| 20260906194604 | 90 | 123 | 15.0 | 32.0 | 0.00 | 0.00 | 0.00 | 34 | 1014.3 |
| 20260906194404 | 89 | 123 | 15.0 | 32.0 | 0.00 | 0.00 | 0.00 | 35 | 1014.1 |
| 20260906194204 | 90 | 126 | 16.0 | 24.0 | 0.00 | 0.00 | 0.00 | 34 | 1014.2 |
| 20260906194004 | 90 | 124 | 14.0 | 24.0 | 0.00 | 0.00 | 0.00 | 34 | 1014.1 |
| 20260906193804 | 90 | 123 | 10.0 | 24.0 | 0.00 | 0.00 | 0.00 | 34 | 1014.2 |
| 20260906193604 | 89 | 124 | 10.0 | 25.0 | 0.00 | 0.00 | 0.00 | 34 | 1014.2 |
| 20260906193404 | 89 | 121 | 17.0 | 25.0 | 0.00 | 0.00 | 0.00 | 34 | 1014.2 |
| 20260906193204 | 89 | 117 | 12.0 | 25.0 | 0.00 | 0.00 | 0.00 | 34 | 1014.1 |
| 20260906193004 | 89 | 126 | 14.0 | 25.0 | 0.00 | 0.00 | 0.00 | 34 | 1014.2 |
| 20260906192825 | 89 | 132 | 14.0 | 25.0 | 0.00 | 0.00 | 0.00 | 34 | 1014.2 |
| 20260906192604 | 89 | 137 | 11.0 | 25.0 | 0.00 | 0.00 | 0.00 | 34 | 1014.2 |
| 20260906192404 | 89 | 139 | 12.0 | 25.0 | 0.00 | 0.00 | 0.00 | 34 | 1014.1 |
| 20260906192204 | 89 | 141 | 16.0 | 25.0 | 0.00 | 0.00 | 0.00 | 34 | 1014.3 |
| 20260906192004 | 89 | 137 | 15.0 | 25.0 | 0.00 | 0.00 | 0.00 | 34 | 1014.2 |
| 20260906191804 | 89 | 136 | 15.0 | 24.0 | 0.00 | 0.00 | 0.00 | 34 | 1014.2 |
| 20260906191604 | 89 | 134 | 13.0 | 24.0 | 0.00 | 0.00 | 0.00 | 35 | 1014.2 |
| 20260906191425 | 89 | 137 | 14.0 | 24.0 | 0.00 | 0.00 | 0.00 | 34 | 1014.4 |
| 20260906191204 | 89 | 135 | 15.0 | 24.0 | 0.00 | 0.00 | 0.00 | 34 | 1014.4 |
| 20260906191025 | 89 | 134 | 16.0 | 24.0 | 0.00 | 0.00 | 0.00 | 34 | 1014.4 |
| 20260906190804 | 89 | 132 | 11.0 | 24.0 | 0.00 | 0.00 | 0.00 | 34 | 1014.4 |
| 20260906190625 | 89 | 132 | 16.0 | 24.0 | 0.00 | 0.00 | 0.00 | 34 | 1014.4 |
| 20260906190404 | 90 | 124 | 11.0 | 24.0 | 0.00 | 0.00 | 0.00 | 34 | 1014.3 |
| 20260906190204 | 90 | 127 | 13.0 | 24.0 | 0.00 | 0.00 | 0.00 | 34 | 1014.3 |
| 20260906190004 | 90 | 132 | 11.0 | 24.0 | 0.00 | 0.00 | 0.00 | 34 | 1014.5 |
| 20260906185804 | 90 | 134 | 12.0 | 24.0 | 0.00 | 0.00 | 0.00 | 34 | 1014.6 |
| 20260906185604 | 89 | 136 | 12.0 | 23.0 | 0.00 | 0.00 | 0.00 | 34 | 1014.5 |
| 20260906185404 | 89 | 139 | 15.0 | 23.0 | 0.00 | 0.00 | 0.00 | 33 | 1014.6 |
| 20260906185204 | 90 | 141 | 14.0 | 23.0 | 0.00 | 0.00 | 0.00 | 34 | 1014.6 |
| 20260906185004 | 90 | 140 | 14.0 | 23.0 | 0.00 | 0.00 | 0.00 | 34 | 1014.5 |
| 20260906184804 | 90 | 135 | 15.0 | 23.0 | 0.00 | 0.00 | 0.00 | 33 | 1014.6 |
| 20260906184604 | 90 | 136 | 15.0 | 23.0 | 0.00 | 0.00 | 0.00 | 33 | 1014.6 |
| 20260906184404 | 90 | 139 | 15.0 | 23.0 | 0.00 | 0.00 | 0.00 | 34 | 1014.7 |
| 20260906184204 | 90 | 139 | 11.0 | 23.0 | 0.00 | 0.00 | 0.00 | 33 | 1014.7 |
| 20260906184004 | 90 | 136 | 12.0 | 23.0 | 0.00 | 0.00 | 0.00 | 33 | 1014.6 |
| 20260906183804 | 90 | 141 | 14.0 | 23.0 | 0.00 | 0.00 | 0.00 | 33 | 1014.8 |
| 20260906183604 | 90 | 141 | 14.0 | 23.0 | 0.00 | 0.00 | 0.00 | 33 | 1014.7 |
| 20260906183404 | 90 | 139 | 9.0 | 23.0 | 0.00 | 0.00 | 0.00 | 34 | 1014.8 |
| 20260906183204 | 89 | 141 | 11.0 | 23.0 | 0.00 | 0.00 | 0.00 | 33 | 1014.8 |
| 20260906183004 | 90 | 143 | 13.0 | 23.0 | 0.00 | 0.00 | 0.00 | 34 | 1014.7 |
| 20260906182804 | 90 | 140 | 15.0 | 23.0 | 0.00 | 0.00 | 0.00 | 33 | 1014.8 |
| 20260906182604 | 90 | 140 | 13.0 | 23.0 | 0.00 | 0.00 | 0.00 | 33 | 1014.8 |
| 20260906182404 | 90 | 142 | 14.0 | 23.0 | 0.00 | 0.00 | 0.00 | 33 | 1014.8 |
| 20260906182204 | 90 | 141 | 13.0 | 23.0 | 0.00 | 0.00 | 0.00 | 33 | 1014.8 |
| 20260906182004 | 90 | 139 | 13.0 | 23.0 | 0.00 | 0.00 | 0.00 | 32 | 1014.7 |
| 20260906181804 | 90 | 140 | 12.0 | 23.0 | 0.00 | 0.00 | 0.00 | 33 | 1014.8 |
| 20260906181604 | 90 | 138 | 9.0 | 23.0 | 0.00 | 0.00 | 0.00 | 33 | 1014.9 |
| 20260906181404 | 90 | 137 | 12.0 | 23.0 | 0.00 | 0.00 | 0.00 | 33 | 1014.8 |
| 20260906181204 | 90 | 135 | 14.0 | 23.0 | 0.00 | 0.00 | 0.00 | 33 | 1015.0 |
| 20260906181004 | 90 | 136 | 11.0 | 22.0 | 0.00 | 0.00 | 0.00 | 32 | 1015.0 |
| 20260906180804 | 90 | 134 | 11.0 | 20.0 | 0.00 | 0.00 | 0.00 | 32 | 1015.0 |
| 20260906180604 | 90 | 137 | 12.0 | 20.0 | 0.00 | 0.00 | 0.00 | 33 | 1015.0 |
| 20260906180404 | 90 | 139 | 11.0 | 20.0 | 0.00 | 0.00 | 0.00 | 33 | 1015.1 |
| 20260906180204 | 90 | 137 | 13.0 | 20.0 | 0.00 | 0.00 | 0.00 | 32 | 1015.0 |
| 20260906180004 | 90 | 141 | 7.0 | 20.0 | 0.00 | 0.00 | 0.00 | 33 | 1015.0 |
| 20260906175804 | 90 | 145 | 11.0 | 20.0 | 0.00 | 0.00 | 0.00 | 33 | 1015.1 |
| 20260906175604 | 90 | 147 | 13.0 | 22.0 | 0.00 | 0.00 | 0.00 | 33 | 1015.1 |
| 20260906175404 | 90 | 148 | 12.0 | 22.0 | 0.00 | 0.00 | 0.00 | 32 | 1015.1 |
| 20260906175204 | 90 | 150 | 11.0 | 22.0 | 0.00 | 0.00 | 0.00 | 32 | 1015.0 |
| 20260906175004 | 90 | 153 | 8.0 | 22.0 | 0.00 | 0.00 | 0.00 | 34 | 1015.1 |
| 20260906174825 | 89 | 156 | 12.0 | 22.0 | 0.00 | 0.00 | 0.00 | 33 | 1015.1 |
| 20260906174604 | 89 | 158 | 8.0 | 20.0 | 0.00 | 0.00 | 0.00 | 33 | 1015.1 |
| 20260906174425 | 89 | 161 | 11.0 | 20.0 | 0.00 | 0.00 | 0.00 | 33 | 1015.2 |
| 20260906174204 | 89 | 164 | 10.0 | 20.0 | 0.00 | 0.00 | 0.00 | 33 | 1015.1 |
| 20260906174025 | 89 | 166 | 9.0 | 20.0 | 0.00 | 0.00 | 0.00 | 34 | 1015.2 |
| 20260906173804 | 89 | 163 | 11.0 | 20.0 | 0.00 | 0.00 | 0.00 | 34 | 1015.3 |
| 20260906173604 | 89 | 161 | 9.0 | 20.0 | 0.00 | 0.00 | 0.00 | 34 | 1015.3 |
| 20260906173404 | 89 | 162 | 11.0 | 21.0 | 0.00 | 0.00 | 0.00 | 34 | 1015.3 |
| 20260906173225 | 89 | 159 | 12.0 | 21.0 | 0.00 | 0.00 | 0.00 | 34 | 1015.3 |
| 20260906173025 | 89 | 158 | 12.0 | 22.0 | 0.00 | 0.00 | 0.00 | 34 | 1015.5 |
| 20260906172804 | 88 | 153 | 7.0 | 22.0 | 0.00 | 0.00 | 0.00 | 34 | 1015.5 |
| 20260906172604 | 88 | 149 | 12.0 | 23.0 | 0.00 | 0.00 | 0.00 | 34 | 1015.5 |
| 20260906172404 | 88 | 143 | 10.0 | 25.0 | 0.00 | 0.00 | 0.00 | 34 | 1015.5 |
| 20260906172204 | 88 | 141 | 12.0 | 25.0 | 0.00 | 0.00 | 0.00 | 34 | 1015.6 |
| 20260906172004 | 88 | 139 | 13.0 | 25.0 | 0.00 | 0.00 | 0.00 | 33 | 1015.6 |
| 20260906171804 | 88 | 139 | 13.0 | 25.0 | 0.00 | 0.00 | 0.00 | 34 | 1015.7 |
| 20260906171604 | 88 | 141 | 16.0 | 25.0 | 0.00 | 0.00 | 0.00 | 34 | 1015.7 |
| 20260906171404 | 88 | 141 | 12.0 | 24.0 | 0.00 | 0.00 | 0.00 | 34 | 1015.7 |
| 20260906171204 | 88 | 147 | 14.0 | 24.0 | 0.00 | 0.00 | 0.00 | 34 | 1015.7 |
| 20260906171025 | 89 | 147 | 15.0 | 22.0 | 0.00 | 0.00 | 0.00 | 33 | 1015.7 |
| 20260906170804 | 89 | 155 | 9.0 | 18.0 | 0.00 | 0.00 | 0.00 | 33 | 1015.6 |
| 20260906170604 | 89 | 160 | 9.0 | 18.0 | 0.00 | 0.00 | 0.00 | 33 | 1015.8 |
| 20260906170404 | 89 | 165 | 11.0 | 18.0 | 0.00 | 0.00 | 0.00 | 34 | 1015.9 |
| 20260906170204 | 89 | 165 | 12.0 | 18.0 | 0.00 | 0.00 | 0.00 | 33 | 1015.8 |
| 20260906170004 | 89 | 170 | 7.0 | 17.0 | 0.00 | 0.00 | 0.00 | 34 | 1015.8 |
| 20260906165804 | 89 | 166 | 9.0 | 22.0 | 0.00 | 0.00 | 0.00 | 34 | 1015.8 |
| 20260906165604 | 89 | 165 | 7.0 | 22.0 | 0.00 | 0.00 | 0.00 | 34 | 1015.8 |
| 20260906165404 | 89 | 165 | 8.0 | 22.0 | 0.00 | 0.00 | 0.00 | 34 | 1015.9 |
| 20260906165204 | 88 | 162 | 6.0 | 22.0 | 0.00 | 0.00 | 0.00 | 34 | 1015.9 |
| 20260906165004 | 88 | 165 | 8.0 | 22.0 | 0.00 | 0.00 | 0.00 | 34 | 1015.9 |
| 20260906164804 | 88 | 165 | 8.0 | 18.0 | 0.00 | 0.00 | 0.00 | 34 | 1015.9 |
| 20260906164604 | 88 | 162 | 8.0 | 20.0 | 0.00 | 0.00 | 0.00 | 34 | 1015.9 |
| 20260906164404 | 88 | 162 | 8.0 | 20.0 | 0.00 | 0.00 | 0.00 | 34 | 1016.0 |
| 20260906164204 | 88 | 163 | 7.0 | 20.0 | 0.00 | 0.00 | 0.00 | 34 | 1016.0 |
| 20260906164004 | 88 | 163 | 8.0 | 20.0 | 0.00 | 0.00 | 0.00 | 34 | 1016.0 |
| 20260906163804 | 88 | 162 | 11.0 | 20.0 | 0.00 | 0.00 | 0.00 | 34 | 1016.1 |
| 20260906163604 | 88 | 163 | 11.0 | 20.0 | 0.00 | 0.00 | 0.00 | 34 | 1016.0 |
| 20260906163404 | 88 | 163 | 9.0 | 20.0 | 0.00 | 0.00 | 0.00 | 35 | 1016.1 |
| 20260906163225 | 88 | 163 | 7.0 | 19.0 | 0.00 | 0.00 | 0.00 | 35 | 1016.1 |
| 20260906163004 | 87 | 163 | 11.0 | 19.0 | 0.00 | 0.00 | 0.00 | 34 | 1016.1 |
| 20260906162804 | 87 | 162 | 11.0 | 19.0 | 0.00 | 0.00 | 0.00 | 35 | 1016.2 |
| 20260906162604 | 88 | 159 | 10.0 | 19.0 | 0.00 | 0.00 | 0.00 | 35 | 1016.1 |
| 20260906162404 | 87 | 160 | 9.0 | 19.0 | 0.00 | 0.00 | 0.00 | 35 | 1016.2 |
| 20260906162204 | 87 | 163 | 4.0 | 19.0 | 0.00 | 0.00 | 0.00 | 35 | 1016.2 |
| 20260906162004 | 87 | 164 | 9.0 | 19.0 | 0.00 | 0.00 | 0.00 | 35 | 1016.0 |
| 20260906161804 | 87 | 169 | 9.0 | 19.0 | 0.00 | 0.00 | 0.00 | 34 | 1016.1 |
| 20260906161604 | 87 | 175 | 8.0 | 19.0 | 0.00 | 0.00 | 0.00 | 36 | 1016.0 |
| 20260906161404 | 87 | 176 | 5.0 | 17.0 | 0.00 | 0.00 | 0.00 | 36 | 1016.1 |
| 20260906161204 | 86 | 173 | 7.0 | 17.0 | 0.00 | 0.00 | 0.00 | 36 | 1016.1 |
| 20260906161004 | 86 | 172 | 9.0 | 19.0 | 0.00 | 0.00 | 0.00 | 36 | 1016.1 |
| 20260906160804 | 86 | 173 | 7.0 | 19.0 | 0.00 | 0.00 | 0.00 | 36 | 1016.1 |
| 20260906160604 | 86 | 174 | 9.0 | 19.0 | 0.00 | 0.00 | 0.00 | 36 | 1016.1 |
| 20260906160404 | 86 | 177 | 10.0 | 19.0 | 0.00 | 0.00 | 0.00 | 36 | 1016.1 |
| 20260906160204 | 86 | 186 | 7.0 | 19.0 | 0.00 | 0.00 | 0.00 | 36 | 1016.1 |
| 20260906160025 | 86 | 188 | 4.0 | 16.0 | 0.00 | 0.00 | 0.00 | 37 | 1016.1 |
| 20260906155825 | 86 | 189 | 4.0 | 16.0 | 0.00 | 0.00 | 0.00 | 36 | 1016.1 |
| 20260906155626 | 86 | 191 | 5.0 | 16.0 | 0.00 | 0.00 | 0.00 | 36 | 1016.0 |
| 20260906155404 | 86 | 192 | 5.0 | 18.0 | 0.00 | 0.00 | 0.00 | 36 | 1016.0 |
| 20260906155204 | 85 | 190 | 7.0 | 19.0 | 0.00 | 0.00 | 0.00 | 36 | 1016.0 |
| 20260906155004 | 85 | 189 | 7.0 | 19.0 | 0.00 | 0.00 | 0.00 | 37 | 1016.0 |
| 20260906154804 | 85 | 188 | 5.0 | 19.0 | 0.00 | 0.00 | 0.00 | 36 | 1016.0 |
| 20260906154604 | 85 | 187 | 8.0 | 19.0 | 0.00 | 0.00 | 0.00 | 36 | 1016.0 |
| 20260906154425 | 85 | 189 | 8.0 | 19.0 | 0.00 | 0.00 | 0.00 | 37 | 1015.9 |
| 20260906154204 | 85 | 194 | 8.0 | 17.0 | 0.00 | 0.00 | 0.00 | 37 | 1016.0 |
| 20260906154004 | 85 | 193 | 6.0 | 18.0 | 0.00 | 0.00 | 0.00 | 37 | 1016.0 |
| 20260906153804 | 85 | 191 | 6.0 | 20.0 | 0.00 | 0.00 | 0.00 | 38 | 1016.0 |
| 20260906153604 | 84 | 185 | 5.0 | 20.0 | 0.00 | 0.00 | 0.00 | 37 | 1016.0 |
| 20260906153404 | 84 | 180 | 7.0 | 20.0 | 0.00 | 0.00 | 0.00 | 37 | 1016.1 |
| 20260906153225 | 84 | 178 | 8.0 | 20.0 | 0.00 | 0.00 | 0.00 | 38 | 1016.1 |
| 20260906153004 | 84 | 177 | 9.0 | 20.0 | 0.00 | 0.00 | 0.00 | 37 | 1016.0 |
| 20260906152825 | 84 | 180 | 11.0 | 20.0 | 0.00 | 0.00 | 0.00 | 37 | 1016.1 |
| 20260906152604 | 84 | 185 | 9.0 | 18.0 | 0.00 | 0.00 | 0.00 | 38 | 1016.1 |
| 20260906152404 | 84 | 186 | 6.0 | 17.0 | 0.00 | 0.00 | 0.00 | 38 | 1016.1 |
| 20260906152204 | 84 | 187 | 5.0 | 17.0 | 0.00 | 0.00 | 0.00 | 38 | 1016.1 |
| 20260906152004 | 84 | 186 | 6.0 | 17.0 | 0.00 | 0.00 | 0.00 | 39 | 1016.1 |
| 20260906151804 | 84 | 185 | 5.0 | 17.0 | 0.00 | 0.00 | 0.00 | 38 | 1016.1 |
| 20260906151604 | 84 | 183 | 6.0 | 17.0 | 0.00 | 0.00 | 0.00 | 39 | 1016.1 |
| 20260906151404 | 83 | 184 | 6.0 | 17.0 | 0.00 | 0.00 | 0.00 | 39 | 1016.1 |
| 20260906151204 | 83 | 182 | 6.0 | 17.0 | 0.00 | 0.00 | 0.00 | 39 | 1016.0 |
| 20260906151004 | 83 | 183 | 5.0 | 17.0 | 0.00 | 0.00 | 0.00 | 40 | 1016.1 |
| 20260906150825 | 83 | 181 | 8.0 | 17.0 | 0.00 | 0.00 | 0.00 | 40 | 1016.1 |
| 20260906150604 | 83 | 181 | 5.0 | 16.0 | 0.00 | 0.00 | 0.00 | 40 | 1016.0 |
| 20260906150404 | 83 | 182 | 7.0 | 16.0 | 0.00 | 0.00 | 0.00 | 40 | 1016.1 |
| 20260906150204 | 82 | 182 | 5.0 | 16.0 | 0.00 | 0.00 | 0.00 | 40 | 1016.2 |
| 20260906150025 | 82 | 182 | 8.0 | 16.0 | 0.00 | 0.00 | 0.00 | 40 | 1016.2 |
| 20260906145804 | 82 | 185 | 5.0 | 16.0 | 0.00 | 0.00 | 0.00 | 41 | 1016.3 |
| 20260906145604 | 82 | 187 | 6.0 | 16.0 | 0.00 | 0.00 | 0.00 | 42 | 1016.3 |
| 20260906145404 | 82 | 185 | 7.0 | 16.0 | 0.00 | 0.00 | 0.00 | 41 | 1016.3 |
| 20260906145204 | 82 | 184 | 5.0 | 16.0 | 0.00 | 0.00 | 0.00 | 42 | 1016.2 |
| 20260906145004 | 82 | 181 | 6.0 | 16.0 | 0.00 | 0.00 | 0.00 | 42 | 1016.2 |
| 20260906144804 | 82 | 181 | 5.0 | 15.0 | 0.00 | 0.00 | 0.00 | 42 | 1016.3 |
| 20260906144604 | 82 | 182 | 5.0 | 15.0 | 0.00 | 0.00 | 0.00 | 42 | 1016.4 |
| 20260906144425 | 82 | 182 | 7.0 | 15.0 | 0.00 | 0.00 | 0.00 | 43 | 1016.3 |
| 20260906144204 | 82 | 192 | 6.0 | 15.0 | 0.00 | 0.00 | 0.00 | 42 | 1016.3 |
| 20260906144004 | 82 | 202 | 5.0 | 15.0 | 0.00 | 0.00 | 0.00 | 42 | 1016.4 |
| 20260906143825 | 81 | 206 | 5.0 | 16.0 | 0.00 | 0.00 | 0.00 | 43 | 1016.4 |
| 20260906143625 | 81 | 211 | 4.0 | 16.0 | 0.00 | 0.00 | 0.00 | 44 | 1016.4 |
| 20260906143404 | 81 | 216 | 3.0 | 16.0 | 0.00 | 0.00 | 0.00 | 45 | 1016.4 |
| 20260906143204 | 80 | 215 | 6.0 | 16.0 | 0.00 | 0.00 | 0.00 | 44 | 1016.3 |
| 20260906143004 | 80 | 220 | 7.0 | 16.0 | 0.00 | 0.00 | 0.00 | 46 | 1016.3 |
| 20260906142825 | 80 | 222 | 6.0 | 14.0 | 0.00 | 0.00 | 0.00 | 45 | 1016.4 |
| 20260906142625 | 80 | 224 | 8.0 | 14.0 | 0.00 | 0.00 | 0.00 | 46 | 1016.3 |
| 20260906142404 | 80 | 224 | 7.0 | 14.0 | 0.00 | 0.00 | 0.00 | 46 | 1016.3 |
| 20260906142204 | 80 | 224 | 9.0 | 14.0 | 0.00 | 0.00 | 0.00 | 46 | 1016.3 |
| 20260906142004 | 80 | 221 | 8.0 | 16.0 | 0.00 | 0.00 | 0.00 | 47 | 1016.3 |
| 20260906141804 | 79 | 219 | 8.0 | 16.0 | 0.00 | 0.00 | 0.00 | 47 | 1016.3 |
| 20260906141604 | 79 | 217 | 9.0 | 16.0 | 0.00 | 0.00 | 0.00 | 47 | 1016.4 |
| 20260906141404 | 79 | 215 | 8.0 | 16.0 | 0.00 | 0.00 | 0.00 | 46 | 1016.3 |
| 20260906141204 | 79 | 214 | 9.0 | 16.0 | 0.00 | 0.00 | 0.00 | 47 | 1016.3 |
| 20260906141004 | 79 | 212 | 6.0 | 12.0 | 0.00 | 0.00 | 0.00 | 47 | 1016.4 |
| 20260906140804 | 79 | 212 | 8.0 | 12.0 | 0.00 | 0.00 | 0.00 | 47 | 1016.4 |
| 20260906140604 | 78 | 211 | 7.0 | 12.0 | 0.00 | 0.00 | 0.00 | 48 | 1016.4 |
| 20260906140404 | 78 | 211 | 6.0 | 12.0 | 0.00 | 0.00 | 0.00 | 48 | 1016.4 |
| 20260906140204 | 78 | 211 | 4.0 | 12.0 | 0.00 | 0.00 | 0.00 | 48 | 1016.4 |
| 20260906140004 | 78 | 212 | 4.0 | 12.0 | 0.00 | 0.00 | 0.00 | 48 | 1016.3 |
| 20260906135804 | 78 | 212 | 6.0 | 12.0 | 0.00 | 0.00 | 0.00 | 49 | 1016.2 |
| 20260906135604 | 78 | 212 | 6.0 | 12.0 | 0.00 | 0.00 | 0.00 | 48 | 1016.3 |
| 20260906135404 | 78 | 213 | 7.0 | 12.0 | 0.00 | 0.00 | 0.00 | 49 | 1016.3 |
| 20260906135225 | 77 | 214 | 5.0 | 12.0 | 0.00 | 0.00 | 0.00 | 49 | 1016.3 |
| 20260906135004 | 77 | 215 | 6.0 | 12.0 | 0.00 | 0.00 | 0.00 | 49 | 1016.3 |
| 20260906134825 | 77 | 214 | 6.0 | 12.0 | 0.00 | 0.00 | 0.00 | 50 | 1016.2 |
| 20260906134604 | 77 | 215 | 5.0 | 12.0 | 0.00 | 0.00 | 0.00 | 50 | 1016.2 |
| 20260906134404 | 76 | 214 | 4.0 | 10.0 | 0.00 | 0.00 | 0.00 | 50 | 1016.1 |
| 20260906134204 | 76 | 216 | 5.0 | 10.0 | 0.00 | 0.00 | 0.00 | 50 | 1016.1 |
| 20260906134004 | 76 | 215 | 5.0 | 12.0 | 0.00 | 0.00 | 0.00 | 51 | 1016.1 |
| 20260906133804 | 76 | 215 | 4.0 | 12.0 | 0.00 | 0.00 | 0.00 | 51 | 1016.1 |
| 20260906133604 | 76 | 217 | 5.0 | 12.0 | 0.00 | 0.00 | 0.00 | 52 | 1016.1 |
| 20260906133404 | 75 | 217 | 6.0 | 14.0 | 0.00 | 0.00 | 0.00 | 53 | 1016.1 |
| 20260906133225 | 75 | 215 | 6.0 | 14.0 | 0.00 | 0.00 | 0.00 | 52 | 1016.1 |
| 20260906133004 | 75 | 215 | 6.0 | 14.0 | 0.00 | 0.00 | 0.00 | 53 | 1016.0 |
| 20260906132825 | 75 | 214 | 5.0 | 14.0 | 0.00 | 0.00 | 0.00 | 53 | 1016.1 |
| 20260906132604 | 75 | 212 | 6.0 | 14.0 | 0.00 | 0.00 | 0.00 | 54 | 1016.1 |
| 20260906132404 | 74 | 209 | 5.0 | 13.0 | 0.00 | 0.00 | 0.00 | 54 | 1016.1 |
| 20260906132204 | 74 | 207 | 6.0 | 13.0 | 0.00 | 0.00 | 0.00 | 54 | 1016.2 |
| 20260906132004 | 74 | 200 | 5.0 | 9.0 | 0.00 | 0.00 | 0.00 | 55 | 1016.2 |
| 20260906131804 | 74 | 197 | 4.0 | 9.0 | 0.00 | 0.00 | 0.00 | 55 | 1016.2 |
| 20260906131604 | 73 | 193 | 3.0 | 9.0 | 0.00 | 0.00 | 0.00 | 55 | 1016.3 |
| 20260906131404 | 73 | 192 | 2.0 | 9.0 | 0.00 | 0.00 | 0.00 | 56 | 1016.3 |
| 20260906131204 | 73 | 193 | 3.0 | 9.0 | 0.00 | 0.00 | 0.00 | 57 | 1016.4 |
| 20260906131004 | 72 | 193 | 2.0 | 8.0 | 0.00 | 0.00 | 0.00 | 57 | 1016.4 |
| 20260906130804 | 72 | 192 | 2.0 | 8.0 | 0.00 | 0.00 | 0.00 | 58 | 1016.4 |
| 20260906130604 | 72 | 193 | 3.0 | 8.0 | 0.00 | 0.00 | 0.00 | 58 | 1016.3 |
| 20260906130425 | 72 | 194 | 3.0 | 8.0 | 0.00 | 0.00 | 0.00 | 58 | 1016.3 |
| 20260906130225 | 71 | 191 | 3.0 | 8.0 | 0.00 | 0.00 | 0.00 | 58 | 1016.2 |
| 20260906130004 | 71 | 201 | 2.0 | 6.0 | 0.00 | 0.00 | 0.00 | 59 | 1016.2 |
| 20260906125804 | 71 | 207 | 2.0 | 7.0 | 0.00 | 0.00 | 0.00 | 60 | 1016.2 |
| 20260906125604 | 70 | 210 | 1.0 | 10.0 | 0.00 | 0.00 | 0.00 | 60 | 1016.1 |
| 20260906125404 | 70 | 213 | 2.0 | 10.0 | 0.00 | 0.00 | 0.00 | 61 | 1016.1 |
| 20260906125204 | 70 | 215 | 3.0 | 10.0 | 0.00 | 0.00 | 0.00 | 61 | 1016.0 |
| 20260906125004 | 70 | 215 | 5.0 | 12.0 | 0.00 | 0.00 | 0.00 | 62 | 1015.9 |
| 20260906124804 | 70 | 216 | 5.0 | 12.0 | 0.00 | 0.00 | 0.00 | 62 | 1015.9 |
| 20260906124604 | 69 | 216 | 6.0 | 12.0 | 0.00 | 0.00 | 0.00 | 62 | 1015.8 |
| 20260906124404 | 69 | 215 | 5.0 | 12.0 | 0.00 | 0.00 | 0.00 | 62 | 1015.8 |
| 20260906124204 | 69 | 214 | 6.0 | 12.0 | 0.00 | 0.00 | 0.00 | 62 | 1015.8 |
| 20260906124004 | 69 | 214 | 6.0 | 12.0 | 0.00 | 0.00 | 0.00 | 62 | 1015.9 |
| 20260906123804 | 69 | 214 | 3.0 | 7.0 | 0.00 | 0.00 | 0.00 | 61 | 1015.9 |
| 20260906123604 | 69 | 214 | 4.0 | 7.0 | 0.00 | 0.00 | 0.00 | 61 | 1015.9 |
| 20260906123404 | 69 | 214 | 4.0 | 8.0 | 0.00 | 0.00 | 0.00 | 62 | 1015.9 |
| 20260906123204 | 69 | 215 | 5.0 | 8.0 | 0.00 | 0.00 | 0.00 | 62 | 1015.9 |
| 20260906123004 | 69 | 214 | 5.0 | 8.0 | 0.00 | 0.00 | 0.00 | 62 | 1015.9 |
| 20260906122804 | 69 | 213 | 5.0 | 8.0 | 0.00 | 0.00 | 0.00 | 62 | 1015.9 |
| 20260906122604 | 69 | 213 | 5.0 | 8.0 | 0.00 | 0.00 | 0.00 | 62 | 1015.9 |
| 20260906122404 | 69 | 213 | 4.0 | 7.0 | 0.00 | 0.00 | 0.00 | 62 | 1015.9 |
| 20260906122204 | 69 | 211 | 4.0 | 7.0 | 0.00 | 0.00 | 0.00 | 62 | 1015.8 |
| 20260906122025 | 69 | 211 | 4.0 | 7.0 | 0.00 | 0.00 | 0.00 | 62 | 1015.9 |
| 20260906121804 | 69 | 210 | 4.0 | 7.0 | 0.00 | 0.00 | 0.00 | 62 | 1015.8 |
| 20260906121604 | 69 | 210 | 4.0 | 7.0 | 0.00 | 0.00 | 0.00 | 62 | 1015.9 |
| 20260906121425 | 69 | 210 | 4.0 | 7.0 | 0.00 | 0.00 | 0.00 | 62 | 1015.8 |
| 20260906121204 | 70 | 212 | 4.0 | 6.0 | 0.00 | 0.00 | 0.00 | 62 | 1015.8 |
| 20260906121004 | 70 | 211 | 4.0 | 7.0 | 0.00 | 0.00 | 0.00 | 62 | 1015.8 |
| 20260906120804 | 70 | 213 | 3.0 | 8.0 | 0.00 | 0.00 | 0.00 | 62 | 1015.8 |
| 20260906120604 | 70 | 215 | 2.0 | 8.0 | 0.00 | 0.00 | 0.00 | 62 | 1015.8 |
| 20260906120425 | 70 | 216 | 3.0 | 8.0 | 0.00 | 0.00 | 0.00 | 62 | 1015.8 |
| 20260906120225 | 70 | 217 | 4.0 | 8.0 | 0.00 | 0.00 | 0.00 | 62 | 1015.8 |
| 20260906120004 | 70 | 220 | 5.0 | 9.0 | 0.00 | 0.00 | 0.00 | 62 | 1015.7 |
| 20260906115825 | 70 | 222 | 5.0 | 9.0 | 0.00 | 0.00 | 0.00 | 62 | 1015.7 |
| 20260906115604 | 70 | 222 | 6.0 | 9.0 | 0.00 | 0.00 | 0.00 | 62 | 1015.7 |
| 20260906115404 | 70 | 222 | 5.0 | 9.0 | 0.00 | 0.00 | 0.00 | 62 | 1015.7 |
| 20260906115204 | 70 | 223 | 6.0 | 9.0 | 0.00 | 0.00 | 0.00 | 62 | 1015.8 |
| 20260906115004 | 70 | 221 | 5.0 | 6.0 | 0.00 | 0.00 | 0.00 | 62 | 1015.6 |
| 20260906114804 | 70 | 220 | 4.0 | 6.0 | 0.00 | 0.00 | 0.00 | 62 | 1015.6 |
| 20260906114625 | 70 | 218 | 4.0 | 6.0 | 0.00 | 0.00 | 0.00 | 62 | 1015.6 |
| 20260906114404 | 70 | 219 | 3.0 | 7.0 | 0.00 | 0.00 | 0.00 | 61 | 1015.6 |
| 20260906114225 | 70 | 219 | 3.0 | 8.0 | 0.00 | 0.00 | 0.00 | 61 | 1015.7 |
| 20260906114004 | 70 | 219 | 4.0 | 8.0 | 0.00 | 0.00 | 0.00 | 62 | 1015.6 |
| 20260906113825 | 70 | 220 | 4.0 | 8.0 | 0.00 | 0.00 | 0.00 | 62 | 1015.6 |
| 20260906113604 | 70 | 219 | 5.0 | 8.0 | 0.00 | 0.00 | 0.00 | 62 | 1015.6 |
| 20260906113425 | 70 | 219 | 5.0 | 8.0 | 0.00 | 0.00 | 0.00 | 62 | 1015.6 |
| 20260906113204 | 70 | 219 | 5.0 | 8.0 | 0.00 | 0.00 | 0.00 | 62 | 1015.6 |
| 20260906113004 | 70 | 219 | 5.0 | 8.0 | 0.00 | 0.00 | 0.00 | 62 | 1015.6 |
| 20260906112804 | 70 | 220 | 6.0 | 9.0 | 0.00 | 0.00 | 0.00 | 62 | 1015.6 |
| 20260906112604 | 70 | 221 | 5.0 | 9.0 | 0.00 | 0.00 | 0.00 | 61 | 1015.6 |
| 20260906112404 | 70 | 222 | 6.0 | 10.0 | 0.00 | 0.00 | 0.00 | 62 | 1015.6 |
| 20260906112204 | 70 | 222 | 5.0 | 10.0 | 0.00 | 0.00 | 0.00 | 62 | 1015.6 |
| 20260906112004 | 70 | 223 | 5.0 | 12.0 | 0.00 | 0.00 | 0.00 | 62 | 1015.6 |
| 20260906111825 | 71 | 223 | 5.0 | 13.0 | 0.00 | 0.00 | 0.00 | 61 | 1015.5 |
| 20260906111625 | 71 | 223 | 6.0 | 13.0 | 0.00 | 0.00 | 0.00 | 62 | 1015.5 |
| 20260906111404 | 71 | 222 | 6.0 | 13.0 | 0.00 | 0.00 | 0.00 | 61 | 1015.5 |
| 20260906111204 | 70 | 223 | 8.0 | 13.0 | 0.00 | 0.00 | 0.00 | 61 | 1015.5 |
| 20260906111025 | 70 | 224 | 8.0 | 13.0 | 0.00 | 0.00 | 0.00 | 62 | 1015.5 |
| 20260906110804 | 70 | 222 | 6.0 | 13.0 | 0.00 | 0.00 | 0.00 | 61 | 1015.5 |
| 20260906110604 | 70 | 220 | 7.0 | 13.0 | 0.00 | 0.00 | 0.00 | 62 | 1015.5 |
| 20260906110425 | 70 | 220 | 8.0 | 13.0 | 0.00 | 0.00 | 0.00 | 62 | 1015.5 |
| 20260906110204 | 70 | 219 | 7.0 | 13.0 | 0.00 | 0.00 | 0.00 | 62 | 1015.6 |
| 20260906110004 | 70 | 216 | 7.0 | 13.0 | 0.00 | 0.00 | 0.00 | 62 | 1015.6 |
| 20260906105804 | 70 | 215 | 7.0 | 13.0 | 0.00 | 0.00 | 0.00 | 62 | 1015.6 |
| 20260906105604 | 70 | 213 | 7.0 | 12.0 | 0.00 | 0.00 | 0.00 | 62 | 1015.6 |
| 20260906105404 | 70 | 211 | 6.0 | 9.0 | 0.00 | 0.00 | 0.00 | 62 | 1015.6 |
| 20260906105204 | 70 | 209 | 4.0 | 7.0 | 0.00 | 0.00 | 0.00 | 63 | 1015.6 |
| 20260906105004 | 70 | 210 | 3.0 | 7.0 | 0.00 | 0.00 | 0.00 | 63 | 1015.7 |
| 20260906104804 | 70 | 211 | 3.0 | 7.0 | 0.00 | 0.00 | 0.00 | 63 | 1015.7 |
| 20260906104604 | 70 | 208 | 4.0 | 7.0 | 0.00 | 0.00 | 0.00 | 63 | 1015.7 |
| 20260906104425 | 70 | 207 | 4.0 | 7.0 | 0.00 | 0.00 | 0.00 | 63 | 1015.6 |
| 20260906104204 | 70 | 206 | 3.0 | 7.0 | 0.00 | 0.00 | 0.00 | 63 | 1015.6 |
| 20260906104004 | 70 | 201 | 2.0 | 7.0 | 0.00 | 0.00 | 0.00 | 63 | 1015.7 |
| 20260906103804 | 70 | 201 | 3.0 | 7.0 | 0.00 | 0.00 | 0.00 | 63 | 1015.7 |
| 20260906103604 | 70 | 204 | 3.0 | 7.0 | 0.00 | 0.00 | 0.00 | 62 | 1015.7 |
| 20260906103404 | 70 | 205 | 2.0 | 7.0 | 0.00 | 0.00 | 0.00 | 62 | 1015.7 |
| 20260906103204 | 70 | 202 | 2.0 | 7.0 | 0.00 | 0.00 | 0.00 | 62 | 1015.7 |
| 20260906103004 | 71 | 205 | 2.0 | 5.0 | 0.00 | 0.00 | 0.00 | 61 | 1015.8 |
| 20260906102825 | 71 | 204 | 2.0 | 5.0 | 0.00 | 0.00 | 0.00 | 61 | 1015.8 |
| 20260906102625 | 71 | 204 | 2.0 | 5.0 | 0.00 | 0.00 | 0.00 | 60 | 1015.7 |
| 20260906102425 | 71 | 195 | 1.0 | 6.0 | 0.00 | 0.00 | 0.00 | 60 | 1015.7 |
| 20260906102204 | 72 | 191 | 2.0 | 6.0 | 0.00 | 0.00 | 0.00 | 60 | 1015.7 |
| 20260906102004 | 72 | 183 | 2.0 | 6.0 | 0.00 | 0.00 | 0.00 | 59 | 1015.6 |
| 20260906101804 | 72 | 178 | 2.0 | 6.0 | 0.00 | 0.00 | 0.00 | 59 | 1015.7 |
| 20260906101604 | 72 | 174 | 3.0 | 6.0 | 0.00 | 0.00 | 0.00 | 59 | 1015.7 |
| 20260906101404 | 72 | 177 | 2.0 | 6.0 | 0.00 | 0.00 | 0.00 | 59 | 1015.7 |
| 20260906101204 | 72 | 178 | 4.0 | 6.0 | 0.00 | 0.00 | 0.00 | 58 | 1015.7 |
| 20260906101005 | 72 | 187 | 3.0 | 6.0 | 0.00 | 0.00 | 0.00 | 58 | 1015.7 |
| 20260906100804 | 72 | 198 | 2.0 | 4.0 | 0.00 | 0.00 | 0.00 | 58 | 1015.8 |
| 20260906100604 | 73 | 210 | 1.0 | 6.0 | 0.00 | 0.00 | 0.00 | 58 | 1015.7 |
| 20260906100405 | 73 | 211 | 1.0 | 7.0 | 0.00 | 0.00 | 0.00 | 58 | 1015.7 |
| 20260906100204 | 73 | 216 | 1.0 | 9.0 | 0.00 | 0.00 | 0.00 | 58 | 1015.8 |
| 20260906100004 | 73 | 219 | 2.0 | 9.0 | 0.00 | 0.00 | 0.00 | 58 | 1015.8 |
| 20260906095804 | 73 | 221 | 4.0 | 10.0 | 0.00 | 0.00 | 0.00 | 58 | 1015.7 |
| 20260906095604 | 73 | 222 | 4.0 | 10.0 | 0.00 | 0.00 | 0.00 | 58 | 1015.6 |
| 20260906095404 | 73 | 225 | 5.0 | 10.0 | 0.00 | 0.00 | 0.00 | 58 | 1015.6 |
| 20260906095225 | 73 | 225 | 6.0 | 12.0 | 0.00 | 0.00 | 0.00 | 57 | 1015.5 |
| 20260906095004 | 73 | 226 | 6.0 | 12.0 | 0.00 | 0.00 | 0.00 | 57 | 1015.5 |
| 20260906094804 | 74 | 226 | 7.0 | 13.0 | 0.00 | 0.00 | 0.00 | 57 | 1015.5 |
| 20260906094625 | 74 | 226 | 7.0 | 13.0 | 0.00 | 0.00 | 0.00 | 57 | 1015.5 |
| 20260906094425 | 74 | 226 | 7.0 | 13.0 | 0.00 | 0.00 | 0.00 | 57 | 1015.5 |
| 20260906094204 | 74 | 226 | 7.0 | 13.0 | 0.00 | 0.00 | 0.00 | 57 | 1015.6 |
| 20260906094004 | 74 | 226 | 8.0 | 13.0 | 0.00 | 0.00 | 0.00 | 57 | 1015.6 |
| 20260906093804 | 74 | 227 | 8.0 | 13.0 | 0.00 | 0.00 | 0.00 | 57 | 1015.7 |
| 20260906093604 | 74 | 227 | 6.0 | 15.0 | 0.00 | 0.00 | 0.00 | 57 | 1015.7 |
| 20260906093404 | 74 | 228 | 8.0 | 15.0 | 0.00 | 0.00 | 0.00 | 57 | 1015.7 |
| 20260906093204 | 74 | 230 | 9.0 | 15.0 | 0.00 | 0.00 | 0.00 | 57 | 1015.5 |
| 20260906093004 | 74 | 230 | 9.0 | 15.0 | 0.00 | 0.00 | 0.00 | 57 | 1015.6 |
| 20260906092825 | 74 | 230 | 9.0 | 15.0 | 0.00 | 0.00 | 0.00 | 58 | 1015.6 |
| 20260906092604 | 74 | 231 | 9.0 | 15.0 | 0.00 | 0.00 | 0.00 | 58 | 1015.6 |
| 20260906092404 | 74 | 231 | 10.0 | 15.0 | 0.00 | 0.00 | 0.00 | 58 | 1015.6 |
| 20260906092225 | 74 | 230 | 9.0 | 15.0 | 0.00 | 0.00 | 0.00 | 58 | 1015.5 |
| 20260906092004 | 74 | 229 | 10.0 | 15.0 | 0.00 | 0.00 | 0.00 | 58 | 1015.5 |
| 20260906091804 | 73 | 227 | 8.0 | 13.0 | 0.00 | 0.00 | 0.00 | 58 | 1015.6 |
| 20260906091604 | 73 | 226 | 9.0 | 13.0 | 0.00 | 0.00 | 0.00 | 58 | 1015.6 |
| 20260906091404 | 73 | 226 | 9.0 | 13.0 | 0.00 | 0.00 | 0.00 | 58 | 1015.5 |
| 20260906091225 | 73 | 226 | 9.0 | 13.0 | 0.00 | 0.00 | 0.00 | 58 | 1015.6 |
| 20260906091004 | 73 | 224 | 8.0 | 13.0 | 0.00 | 0.00 | 0.00 | 58 | 1015.6 |
| 20260906090825 | 73 | 225 | 7.0 | 13.0 | 0.00 | 0.00 | 0.00 | 58 | 1015.5 |
| 20260906090604 | 74 | 225 | 7.0 | 15.0 | 0.00 | 0.00 | 0.00 | 58 | 1015.5 |
| 20260906090404 | 74 | 226 | 9.0 | 15.0 | 0.00 | 0.00 | 0.00 | 58 | 1015.5 |
| 20260906090204 | 74 | 228 | 8.0 | 15.0 | 0.00 | 0.00 | 0.00 | 58 | 1015.4 |
| 20260906090004 | 74 | 229 | 9.0 | 16.0 | 0.00 | 0.00 | 0.00 | 58 | 1015.3 |
| 20260906085804 | 74 | 229 | 9.0 | 16.0 | 0.00 | 0.00 | 0.00 | 58 | 1015.3 |
| 20260906085604 | 73 | 229 | 10.0 | 17.0 | 0.00 | 0.00 | 0.00 | 59 | 1015.2 |
| 20260906085404 | 73 | 229 | 9.0 | 17.0 | 0.00 | 0.00 | 0.00 | 59 | 1015.2 |
| 20260906085204 | 73 | 229 | 11.0 | 17.0 | 0.00 | 0.00 | 0.00 | 59 | 1015.2 |
| 20260906085004 | 73 | 228 | 11.0 | 17.0 | 0.00 | 0.00 | 0.00 | 60 | 1015.1 |
| 20260906084804 | 73 | 228 | 11.0 | 17.0 | 0.00 | 0.00 | 0.00 | 60 | 1015.1 |
| 20260906084604 | 73 | 228 | 11.0 | 15.0 | 0.00 | 0.00 | 0.00 | 60 | 1015.1 |
| 20260906084404 | 72 | 226 | 9.0 | 14.0 | 0.00 | 0.00 | 0.00 | 60 | 1015.2 |
| 20260906084204 | 72 | 225 | 9.0 | 14.0 | 0.00 | 0.00 | 0.00 | 60 | 1015.4 |
| 20260906084004 | 72 | 225 | 9.0 | 15.0 | 0.00 | 0.00 | 0.00 | 60 | 1015.3 |
| 20260906083804 | 72 | 225 | 10.0 | 15.0 | 0.00 | 0.00 | 0.00 | 60 | 1015.3 |
| 20260906083604 | 72 | 225 | 8.0 | 15.0 | 0.00 | 0.00 | 0.00 | 60 | 1015.4 |
| 20260906083404 | 72 | 225 | 8.0 | 15.0 | 0.00 | 0.00 | 0.00 | 60 | 1015.4 |
| 20260906083204 | 72 | 226 | 8.0 | 15.0 | 0.00 | 0.00 | 0.00 | 60 | 1015.4 |
| 20260906083025 | 72 | 226 | 9.0 | 15.0 | 0.00 | 0.00 | 0.00 | 60 | 1015.4 |
| 20260906082825 | 73 | 225 | 9.0 | 14.0 | 0.00 | 0.00 | 0.00 | 60 | 1015.4 |
| 20260906082604 | 73 | 224 | 9.0 | 13.0 | 0.00 | 0.00 | 0.00 | 60 | 1015.4 |
| 20260906082404 | 73 | 224 | 8.0 | 13.0 | 0.00 | 0.00 | 0.00 | 60 | 1015.5 |
| 20260906082204 | 73 | 224 | 8.0 | 14.0 | 0.00 | 0.00 | 0.00 | 60 | 1015.5 |
| 20260906082025 | 73 | 223 | 7.0 | 14.0 | 0.00 | 0.00 | 0.00 | 60 | 1015.5 |
| 20260906081804 | 73 | 225 | 8.0 | 14.0 | 0.00 | 0.00 | 0.00 | 60 | 1015.5 |
| 20260906081604 | 73 | 225 | 9.0 | 15.0 | 0.00 | 0.00 | 0.00 | 60 | 1015.5 |
| 20260906081404 | 73 | 223 | 9.0 | 15.0 | 0.00 | 0.00 | 0.00 | 60 | 1015.4 |
| 20260906081204 | 73 | 223 | 8.0 | 16.0 | 0.00 | 0.00 | 0.00 | 59 | 1015.5 |
| 20260906081025 | 74 | 224 | 9.0 | 16.0 | 0.00 | 0.00 | 0.00 | 59 | 1015.4 |
| 20260906080804 | 74 | 222 | 9.0 | 21.0 | 0.00 | 0.00 | 0.00 | 59 | 1015.4 |
| 20260906080604 | 74 | 221 | 9.0 | 21.0 | 0.00 | 0.00 | 0.00 | 59 | 1015.5 |
| 20260906080404 | 74 | 221 | 10.0 | 21.0 | 0.00 | 0.00 | 0.00 | 58 | 1015.4 |
| 20260906080204 | 74 | 219 | 12.0 | 21.0 | 0.00 | 0.00 | 0.00 | 59 | 1015.4 |
| 20260906080025 | 74 | 217 | 10.0 | 21.0 | 0.00 | 0.00 | 0.00 | 58 | 1015.4 |
| 20260906075825 | 74 | 216 | 8.0 | 15.0 | 0.00 | 0.00 | 0.00 | 58 | 1015.5 |
| 20260906075604 | 74 | 214 | 9.0 | 15.0 | 0.00 | 0.00 | 0.00 | 58 | 1015.5 |
| 20260906075425 | 74 | 212 | 9.0 | 15.0 | 0.00 | 0.00 | 0.00 | 58 | 1015.6 |
| 20260906075204 | 74 | 209 | 8.0 | 14.0 | 0.00 | 0.00 | 0.00 | 58 | 1015.8 |
| 20260906075025 | 74 | 208 | 7.0 | 13.0 | 0.00 | 0.00 | 0.00 | 59 | 1015.8 |
| 20260906074804 | 74 | 205 | 6.0 | 12.0 | 0.00 | 0.00 | 0.00 | 59 | 1015.9 |
| 20260906074604 | 74 | 205 | 5.0 | 10.0 | 0.00 | 0.00 | 0.00 | 59 | 1015.9 |
| 20260906074404 | 73 | 201 | 5.0 | 9.0 | 0.00 | 0.00 | 0.00 | 59 | 1015.9 |
| 20260906074204 | 73 | 196 | 5.0 | 12.0 | 0.00 | 0.00 | 0.00 | 60 | 1015.8 |
| 20260906074004 | 73 | 188 | 4.0 | 13.0 | 0.00 | 0.00 | 0.00 | 60 | 1015.8 |
| 20260906073804 | 73 | 181 | 4.0 | 13.0 | 0.00 | 0.00 | 0.00 | 60 | 1015.9 |
| 20260906073604 | 73 | 175 | 4.0 | 13.0 | 0.00 | 0.00 | 0.00 | 60 | 1015.9 |
| 20260906073425 | 73 | 172 | 5.0 | 13.0 | 0.00 | 0.00 | 0.00 | 60 | 1015.9 |
| 20260906073204 | 73 | 169 | 6.0 | 13.0 | 0.00 | 0.00 | 0.00 | 60 | 1015.9 |
| 20260906073004 | 73 | 168 | 7.0 | 13.0 | 0.00 | 0.00 | 0.00 | 60 | 1016.0 |
| 20260906072804 | 73 | 167 | 6.0 | 12.0 | 0.00 | 0.00 | 0.00 | 60 | 1016.1 |
| 20260906072625 | 73 | 168 | 7.0 | 12.0 | 0.00 | 0.00 | 0.00 | 60 | 1016.1 |
| 20260906072404 | 73 | 172 | 7.0 | 12.0 | 0.00 | 0.00 | 0.00 | 61 | 1016.1 |
| 20260906072204 | 73 | 180 | 7.0 | 10.0 | 0.00 | 0.00 | 0.00 | 61 | 1016.0 |
| 20260906072004 | 73 | 195 | 5.0 | 10.0 | 0.00 | 0.00 | 0.00 | 61 | 1016.0 |
| 20260906071804 | 73 | 209 | 3.0 | 10.0 | 0.00 | 0.00 | 0.00 | 61 | 1015.9 |
| 20260906071604 | 73 | 213 | 3.0 | 10.0 | 0.00 | 0.00 | 0.00 | 61 | 1015.9 |
| 20260906071425 | 73 | 215 | 2.0 | 12.0 | 0.00 | 0.00 | 0.00 | 61 | 1015.9 |
| 20260906071225 | 73 | 215 | 4.0 | 12.0 | 0.00 | 0.00 | 0.00 | 61 | 1015.9 |
| 20260906071004 | 73 | 216 | 7.0 | 12.0 | 0.00 | 0.00 | 0.00 | 62 | 1015.7 |
| 20260906070804 | 73 | 215 | 7.0 | 12.0 | 0.00 | 0.00 | 0.00 | 62 | 1015.8 |
| 20260906070604 | 73 | 213 | 7.0 | 12.0 | 0.00 | 0.00 | 0.00 | 62 | 1015.8 |
| 20260906070404 | 73 | 212 | 6.0 | 9.0 | 0.00 | 0.00 | 0.00 | 62 | 1015.8 |
| 20260906070204 | 73 | 208 | 3.0 | 6.0 | 0.00 | 0.00 | 0.00 | 62 | 1015.8 |
| 20260906070004 | 73 | 201 | 2.0 | 3.0 | 0.00 | 0.00 | 0.00 | 62 | 1015.9 |
| 20260906065804 | 73 | 206 | 1.0 | 4.0 | 0.00 | 0.00 | 0.00 | 61 | 1015.9 |
| 20260906065604 | 73 | 211 | 1.0 | 4.0 | 0.00 | 0.00 | 0.00 | 61 | 1015.8 |
| 20260906065404 | 73 | 214 | 1.0 | 4.0 | 0.00 | 0.00 | 0.00 | 61 | 1015.9 |
| 20260906065204 | 74 | 216 | 1.0 | 5.0 | 0.00 | 0.00 | 0.00 | 61 | 1015.9 |
| 20260906065004 | 74 | 217 | 3.0 | 5.0 | 0.00 | 0.00 | 0.00 | 61 | 1015.9 |
| 20260906064804 | 74 | 217 | 3.0 | 5.0 | 0.00 | 0.00 | 0.00 | 61 | 1015.9 |
| 20260906064604 | 74 | 218 | 3.0 | 5.0 | 0.00 | 0.00 | 0.00 | 61 | 1015.8 |
| 20260906064404 | 74 | 219 | 3.0 | 5.0 | 0.00 | 0.00 | 0.00 | 61 | 1015.9 |
| 20260906064204 | 74 | 221 | 3.0 | 5.0 | 0.00 | 0.00 | 0.00 | 60 | 1015.9 |
| 20260906064004 | 74 | 221 | 3.0 | 5.0 | 0.00 | 0.00 | 0.00 | 60 | 1015.8 |
| 20260906063804 | 74 | 223 | 3.0 | 6.0 | 0.00 | 0.00 | 0.00 | 60 | 1015.7 |
| 20260906063604 | 74 | 223 | 4.0 | 7.0 | 0.00 | 0.00 | 0.00 | 60 | 1015.7 |
| 20260906063404 | 74 | 224 | 3.0 | 7.0 | 0.00 | 0.00 | 0.00 | 60 | 1015.8 |
| 20260906063204 | 74 | 224 | 3.0 | 7.0 | 0.00 | 0.00 | 0.00 | 60 | 1015.7 |
| 20260906063004 | 75 | 226 | 4.0 | 9.0 | 0.00 | 0.00 | 0.00 | 59 | 1015.7 |
| 20260906062825 | 75 | 227 | 5.0 | 9.0 | 0.00 | 0.00 | 0.00 | 59 | 1015.6 |
| 20260906062604 | 75 | 228 | 5.0 | 9.0 | 0.00 | 0.00 | 0.00 | 59 | 1015.5 |
| 20260906062404 | 75 | 228 | 5.0 | 9.0 | 0.00 | 0.00 | 0.00 | 59 | 1015.5 |
| 20260906062225 | 75 | 229 | 6.0 | 9.0 | 0.00 | 0.00 | 0.00 | 59 | 1015.4 |
| 20260906062004 | 75 | 230 | 7.0 | 10.0 | 0.00 | 0.00 | 0.00 | 59 | 1015.4 |
| 20260906061825 | 75 | 231 | 7.0 | 10.0 | 0.00 | 0.00 | 0.00 | 59 | 1015.3 |
| 20260906061604 | 75 | 233 | 7.0 | 10.0 | 0.00 | 0.00 | 0.00 | 59 | 1015.3 |
| 20260906061404 | 75 | 236 | 7.0 | 10.0 | 0.00 | 0.00 | 0.00 | 59 | 1015.3 |
| 20260906061204 | 75 | 241 | 7.0 | 10.0 | 0.00 | 0.00 | 0.00 | 59 | 1015.3 |
| 20260906061004 | 75 | 245 | 6.0 | 10.0 | 0.00 | 0.00 | 0.00 | 59 | 1015.2 |
| 20260906060804 | 75 | 247 | 6.0 | 10.0 | 0.00 | 0.00 | 0.00 | 58 | 1015.2 |
| 20260906060604 | 75 | 248 | 7.0 | 10.0 | 0.00 | 0.00 | 0.00 | 58 | 1015.2 |
| 20260906060404 | 75 | 248 | 6.0 | 10.0 | 0.00 | 0.00 | 0.00 | 58 | 1015.2 |
| 20260906060225 | 75 | 247 | 5.0 | 10.0 | 0.00 | 0.00 | 0.00 | 58 | 1015.2 |
| 20260906060004 | 75 | 243 | 6.0 | 10.0 | 0.00 | 0.00 | 0.00 | 57 | 1015.1 |
| 20260906055804 | 75 | 241 | 6.0 | 10.0 | 0.00 | 0.00 | 0.00 | 57 | 1015.2 |
| 20260906055604 | 75 | 238 | 7.0 | 10.0 | 0.00 | 0.00 | 0.00 | 57 | 1015.2 |
| 20260906055404 | 76 | 236 | 6.0 | 9.0 | 0.00 | 0.00 | 0.00 | 56 | 1015.2 |
| 20260906055204 | 76 | 233 | 6.0 | 10.0 | 0.00 | 0.00 | 0.00 | 56 | 1015.4 |
| 20260906055004 | 76 | 231 | 7.0 | 10.0 | 0.00 | 0.00 | 0.00 | 56 | 1015.5 |
| 20260906054825 | 76 | 230 | 6.0 | 10.0 | 0.00 | 0.00 | 0.00 | 56 | 1015.5 |
| 20260906054604 | 76 | 228 | 6.0 | 10.0 | 0.00 | 0.00 | 0.00 | 55 | 1015.6 |
| 20260906054404 | 76 | 226 | 6.0 | 12.0 | 0.00 | 0.00 | 0.00 | 55 | 1015.6 |
| 20260906054204 | 76 | 225 | 7.0 | 12.0 | 0.00 | 0.00 | 0.00 | 54 | 1015.6 |
| 20260906054004 | 76 | 223 | 6.0 | 12.0 | 0.00 | 0.00 | 0.00 | 54 | 1015.7 |
| 20260906053806 | 76 | 221 | 6.0 | 12.0 | 0.00 | 0.00 | 0.00 | 54 | 1015.7 |
| 20260906053625 | 77 | 220 | 8.0 | 12.0 | 0.00 | 0.00 | 0.00 | 55 | 1015.7 |
| 20260906053404 | 77 | 216 | 5.0 | 10.0 | 0.00 | 0.00 | 0.00 | 55 | 1015.8 |
| 20260906053204 | 77 | 214 | 6.0 | 10.0 | 0.00 | 0.00 | 0.00 | 54 | 1015.9 |
| 20260906053004 | 77 | 213 | 5.0 | 10.0 | 0.00 | 0.00 | 0.00 | 55 | 1015.9 |
| 20260906052804 | 77 | 212 | 6.0 | 10.0 | 0.00 | 0.00 | 0.00 | 54 | 1016.0 |
| 20260906052604 | 76 | 210 | 7.0 | 10.0 | 0.00 | 0.00 | 0.00 | 54 | 1016.0 |
| 20260906052425 | 76 | 211 | 6.0 | 10.0 | 0.00 | 0.00 | 0.00 | 54 | 1016.1 |
| 20260906052204 | 76 | 211 | 6.0 | 9.0 | 0.00 | 0.00 | 0.00 | 55 | 1016.0 |
| 20260906052004 | 76 | 210 | 4.0 | 9.0 | 0.00 | 0.00 | 0.00 | 55 | 1016.1 |
| 20260906051804 | 76 | 211 | 5.0 | 10.0 | 0.00 | 0.00 | 0.00 | 55 | 1016.1 |
| 20260906051604 | 76 | 214 | 5.0 | 12.0 | 0.00 | 0.00 | 0.00 | 55 | 1016.2 |
| 20260906051404 | 75 | 215 | 4.0 | 12.0 | 0.00 | 0.00 | 0.00 | 54 | 1016.2 |
| 20260906051204 | 75 | 216 | 4.0 | 12.0 | 0.00 | 0.00 | 0.00 | 53 | 1016.1 |
| 20260906051004 | 75 | 216 | 6.0 | 12.0 | 0.00 | 0.00 | 0.00 | 52 | 1016.2 |
| 20260906050804 | 75 | 216 | 7.0 | 12.0 | 0.00 | 0.00 | 0.00 | 52 | 1016.1 |
| 20260906050604 | 75 | 216 | 6.0 | 9.0 | 0.00 | 0.00 | 0.00 | 52 | 1016.1 |
| 20260906050404 | 75 | 216 | 6.0 | 9.0 | 0.00 | 0.00 | 0.00 | 51 | 1016.1 |
| 20260906050204 | 75 | 215 | 6.0 | 9.0 | 0.00 | 0.00 | 0.00 | 51 | 1016.1 |
| 20260906050004 | 75 | 215 | 6.0 | 8.0 | 0.00 | 0.00 | 0.00 | 51 | 1016.1 |
| 20260906045804 | 75 | 216 | 5.0 | 8.0 | 0.00 | 0.00 | 0.00 | 51 | 1016.1 |
| 20260906045604 | 76 | 214 | 5.0 | 8.0 | 0.00 | 0.00 | 0.00 | 50 | 1016.1 |
| 20260906045404 | 76 | 213 | 6.0 | 8.0 | 0.00 | 0.00 | 0.00 | 51 | 1016.1 |
| 20260906045204 | 76 | 214 | 5.0 | 8.0 | 0.00 | 0.00 | 0.00 | 50 | 1016.1 |
| 20260906045025 | 76 | 214 | 5.0 | 8.0 | 0.00 | 0.00 | 0.00 | 50 | 1016.1 |
| 20260906044804 | 76 | 214 | 5.0 | 8.0 | 0.00 | 0.00 | 0.00 | 49 | 1016.1 |
| 20260906044604 | 76 | 216 | 4.0 | 10.0 | 0.00 | 0.00 | 0.00 | 50 | 1016.1 |
| 20260906044425 | 76 | 217 | 4.0 | 10.0 | 0.00 | 0.00 | 0.00 | 49 | 1016.2 |
| 20260906044204 | 76 | 218 | 6.0 | 10.0 | 0.00 | 0.00 | 0.00 | 49 | 1016.2 |
| 20260906044004 | 76 | 219 | 6.0 | 10.0 | 0.00 | 0.00 | 0.00 | 49 | 1016.2 |
| 20260906043804 | 76 | 219 | 7.0 | 10.0 | 0.00 | 0.00 | 0.00 | 49 | 1016.3 |
| 20260906043604 | 76 | 219 | 8.0 | 13.0 | 0.00 | 0.00 | 0.00 | 48 | 1016.2 |
| 20260906043404 | 77 | 217 | 7.0 | 13.0 | 0.00 | 0.00 | 0.00 | 48 | 1016.2 |
| 20260906043204 | 77 | 215 | 6.0 | 13.0 | 0.00 | 0.00 | 0.00 | 48 | 1016.2 |
| 20260906043004 | 77 | 213 | 6.0 | 13.0 | 0.00 | 0.00 | 0.00 | 48 | 1016.2 |
| 20260906042804 | 77 | 212 | 7.0 | 13.0 | 0.00 | 0.00 | 0.00 | 48 | 1016.2 |
| 20260906042604 | 76 | 213 | 5.0 | 13.0 | 0.00 | 0.00 | 0.00 | 48 | 1016.2 |
| 20260906042404 | 76 | 216 | 5.0 | 13.0 | 0.00 | 0.00 | 0.00 | 48 | 1016.2 |
| 20260906042225 | 76 | 217 | 4.0 | 13.0 | 0.00 | 0.00 | 0.00 | 49 | 1016.2 |
| 20260906042004 | 76 | 218 | 8.0 | 13.0 | 0.00 | 0.00 | 0.00 | 48 | 1016.1 |
| 20260906041804 | 76 | 220 | 8.0 | 13.0 | 0.00 | 0.00 | 0.00 | 48 | 1016.0 |
| 20260906041604 | 76 | 221 | 6.0 | 9.0 | 0.00 | 0.00 | 0.00 | 48 | 1015.9 |
| 20260906041404 | 77 | 221 | 6.0 | 7.0 | 0.00 | 0.00 | 0.00 | 49 | 1015.8 |
| 20260906041204 | 77 | 222 | 5.0 | 7.0 | 0.00 | 0.00 | 0.00 | 49 | 1015.8 |
| 20260906041025 | 77 | 223 | 5.0 | 7.0 | 0.00 | 0.00 | 0.00 | 49 | 1015.9 |
| 20260906040804 | 77 | 224 | 5.0 | 7.0 | 0.00 | 0.00 | 0.00 | 49 | 1015.9 |
| 20260906040604 | 77 | 224 | 6.0 | 7.0 | 0.00 | 0.00 | 0.00 | 49 | 1015.9 |
| 20260906040404 | 77 | 225 | 5.0 | 7.0 | 0.00 | 0.00 | 0.00 | 48 | 1015.9 |
| 20260906040204 | 77 | 225 | 5.0 | 8.0 | 0.00 | 0.00 | 0.00 | 49 | 1015.9 |
| 20260906040004 | 77 | 226 | 5.0 | 8.0 | 0.00 | 0.00 | 0.00 | 49 | 1016.0 |
| 20260906035827 | 77 | 226 | 5.0 | 9.0 | 0.00 | 0.00 | 0.00 | 49 | 1015.9 |
| 20260906035604 | 77 | 227 | 6.0 | 9.0 | 0.00 | 0.00 | 0.00 | 49 | 1016.0 |
| 20260906035404 | 77 | 227 | 6.0 | 9.0 | 0.00 | 0.00 | 0.00 | 49 | 1015.9 |
| 20260906035204 | 77 | 228 | 7.0 | 9.0 | 0.00 | 0.00 | 0.00 | 49 | 1016.1 |
| 20260906035004 | 77 | 229 | 7.0 | 10.0 | 0.00 | 0.00 | 0.00 | 49 | 1016.1 |
| 20260906034804 | 77 | 229 | 7.0 | 10.0 | 0.00 | 0.00 | 0.00 | 49 | 1016.1 |
| 20260906034625 | 77 | 230 | 7.0 | 10.0 | 0.00 | 0.00 | 0.00 | 49 | 1016.1 |
| 20260906034404 | 77 | 230 | 8.0 | 10.0 | 0.00 | 0.00 | 0.00 | 49 | 1016.2 |
| 20260906034225 | 77 | 230 | 8.0 | 10.0 | 0.00 | 0.00 | 0.00 | 48 | 1016.1 |
| 20260906034025 | 77 | 230 | 7.0 | 9.0 | 0.00 | 0.00 | 0.00 | 48 | 1016.1 |
| 20260906033804 | 76 | 228 | 7.0 | 9.0 | 0.00 | 0.00 | 0.00 | 49 | 1016.1 |
| 20260906033604 | 76 | 227 | 7.0 | 10.0 | 0.00 | 0.00 | 0.00 | 49 | 1016.1 |
| 20260906033404 | 76 | 226 | 6.0 | 10.0 | 0.00 | 0.00 | 0.00 | 49 | 1016.1 |
| 20260906033225 | 76 | 225 | 6.0 | 10.0 | 0.00 | 0.00 | 0.00 | 50 | 1016.1 |
| 20260906033025 | 76 | 222 | 7.0 | 10.0 | 0.00 | 0.00 | 0.00 | 50 | 1016.2 |
| 20260906032804 | 76 | 221 | 8.0 | 10.0 | 0.00 | 0.00 | 0.00 | 49 | 1016.1 |
| 20260906032604 | 76 | 219 | 6.0 | 9.0 | 0.00 | 0.00 | 0.00 | 49 | 1016.1 |
| 20260906032404 | 76 | 219 | 6.0 | 8.0 | 0.00 | 0.00 | 0.00 | 49 | 1016.1 |
| 20260906032204 | 76 | 219 | 7.0 | 8.0 | 0.00 | 0.00 | 0.00 | 48 | 1016.2 |
| 20260906032004 | 76 | 220 | 6.0 | 8.0 | 0.00 | 0.00 | 0.00 | 48 | 1016.2 |
| 20260906031804 | 76 | 219 | 6.0 | 8.0 | 0.00 | 0.00 | 0.00 | 48 | 1016.2 |
| 20260906031604 | 76 | 219 | 6.0 | 9.0 | 0.00 | 0.00 | 0.00 | 48 | 1016.2 |
| 20260906031404 | 76 | 219 | 5.0 | 9.0 | 0.00 | 0.00 | 0.00 | 48 | 1016.2 |
| 20260906031204 | 76 | 218 | 5.0 | 9.0 | 0.00 | 0.00 | 0.00 | 48 | 1016.2 |
| 20260906031004 | 76 | 219 | 5.0 | 9.0 | 0.00 | 0.00 | 0.00 | 48 | 1016.1 |
| 20260906030804 | 76 | 219 | 6.0 | 9.0 | 0.00 | 0.00 | 0.00 | 48 | 1016.1 |
| 20260906030604 | 76 | 219 | 7.0 | 10.0 | 0.00 | 0.00 | 0.00 | 48 | 1016.0 |
| 20260906030404 | 76 | 218 | 7.0 | 10.0 | 0.00 | 0.00 | 0.00 | 48 | 1016.0 |
| 20260906030204 | 76 | 218 | 7.0 | 10.0 | 0.00 | 0.00 | 0.00 | 48 | 1016.0 |
| 20260906030004 | 76 | 218 | 7.0 | 10.0 | 0.00 | 0.00 | 0.00 | 48 | 1016.1 |
| 20260906025804 | 76 | 219 | 7.0 | 10.0 | 0.00 | 0.00 | 0.00 | 47 | 1016.1 |
| 20260906025604 | 76 | 220 | 8.0 | 9.0 | 0.00 | 0.00 | 0.00 | 47 | 1016.0 |
| 20260906025404 | 76 | 223 | 6.0 | 9.0 | 0.00 | 0.00 | 0.00 | 47 | 1016.1 |
| 20260906025204 | 76 | 224 | 6.0 | 9.0 | 0.00 | 0.00 | 0.00 | 47 | 1015.9 |
| 20260906025025 | 76 | 224 | 5.0 | 8.0 | 0.00 | 0.00 | 0.00 | 47 | 1016.0 |
| 20260906024804 | 77 | 223 | 6.0 | 9.0 | 0.00 | 0.00 | 0.00 | 47 | 1015.9 |
| 20260906024604 | 77 | 224 | 6.0 | 9.0 | 0.00 | 0.00 | 0.00 | 47 | 1015.9 |
| 20260906024425 | 77 | 224 | 6.0 | 9.0 | 0.00 | 0.00 | 0.00 | 47 | 1015.9 |
| 20260906024204 | 77 | 224 | 6.0 | 10.0 | 0.00 | 0.00 | 0.00 | 47 | 1015.9 |
| 20260906024004 | 77 | 225 | 6.0 | 10.0 | 0.00 | 0.00 | 0.00 | 46 | 1015.9 |
| 20260906023804 | 77 | 226 | 7.0 | 10.0 | 0.00 | 0.00 | 0.00 | 46 | 1015.8 |
| 20260906023604 | 77 | 227 | 8.0 | 10.0 | 0.00 | 0.00 | 0.00 | 46 | 1015.8 |
| 20260906023426 | 77 | 227 | 8.0 | 10.0 | 0.00 | 0.00 | 0.00 | 46 | 1015.8 |
| 20260906023204 | 77 | 227 | 7.0 | 9.0 | 0.00 | 0.00 | 0.00 | 46 | 1015.7 |
| 20260906023004 | 77 | 227 | 7.0 | 9.0 | 0.00 | 0.00 | 0.00 | 46 | 1015.7 |
| 20260906022804 | 77 | 227 | 7.0 | 9.0 | 0.00 | 0.00 | 0.00 | 46 | 1015.7 |
| 20260906022604 | 77 | 228 | 7.0 | 9.0 | 0.00 | 0.00 | 0.00 | 46 | 1015.7 |
| 20260906022404 | 77 | 228 | 6.0 | 10.0 | 0.00 | 0.00 | 0.00 | 46 | 1015.7 |
| 20260906022204 | 78 | 229 | 6.0 | 10.0 | 0.00 | 0.00 | 0.00 | 46 | 1015.6 |
| 20260906022025 | 78 | 229 | 7.0 | 10.0 | 0.00 | 0.00 | 0.00 | 45 | 1015.6 |
| 20260906021827 | 78 | 229 | 7.0 | 10.0 | 0.00 | 0.00 | 0.00 | 45 | 1015.7 |
| 20260906021604 | 78 | 229 | 7.0 | 10.0 | 0.00 | 0.00 | 0.00 | 45 | 1015.6 |
| 20260906021404 | 78 | 229 | 7.0 | 9.0 | 0.00 | 0.00 | 0.00 | 45 | 1015.6 |
| 20260906021204 | 78 | 229 | 6.0 | 9.0 | 0.00 | 0.00 | 0.00 | 46 | 1015.6 |
| 20260906021025 | 78 | 229 | 7.0 | 9.0 | 0.00 | 0.00 | 0.00 | 46 | 1015.5 |
| 20260906020804 | 78 | 228 | 7.0 | 9.0 | 0.00 | 0.00 | 0.00 | 46 | 1015.5 |
| 20260906020604 | 78 | 227 | 7.0 | 9.0 | 0.00 | 0.00 | 0.00 | 46 | 1015.6 |
| 20260906020404 | 78 | 226 | 8.0 | 9.0 | 0.00 | 0.00 | 0.00 | 46 | 1015.5 |
| 20260906020204 | 78 | 224 | 7.0 | 9.0 | 0.00 | 0.00 | 0.00 | 48 | 1015.5 |
| 20260906020026 | 78 | 224 | 6.0 | 9.0 | 0.00 | 0.00 | 0.00 | 48 | 1015.6 |
| 20260906015804 | 78 | 222 | 5.0 | 7.0 | 0.00 | 0.00 | 0.00 | 49 | 1015.6 |
| 20260906015604 | 78 | 220 | 5.0 | 6.0 | 0.00 | 0.00 | 0.00 | 49 | 1015.5 |
| 20260906015404 | 79 | 220 | 4.0 | 6.0 | 0.00 | 0.00 | 0.00 | 49 | 1015.5 |
| 20260906015225 | 79 | 221 | 4.0 | 6.0 | 0.00 | 0.00 | 0.00 | 49 | 1015.5 |
| 20260906015025 | 79 | 220 | 4.0 | 6.0 | 0.00 | 0.00 | 0.00 | 49 | 1015.4 |
| 20260906014804 | 79 | 213 | 4.0 | 6.0 | 0.00 | 0.00 | 0.00 | 49 | 1015.4 |
| 20260906014604 | 79 | 204 | 4.0 | 7.0 | 0.00 | 0.00 | 0.00 | 49 | 1015.4 |
| 20260906014404 | 79 | 194 | 4.0 | 8.0 | 0.00 | 0.00 | 0.00 | 50 | 1015.3 |
| 20260906014204 | 79 | 182 | 3.0 | 9.0 | 0.00 | 0.00 | 0.00 | 50 | 1015.3 |
| 20260906014004 | 79 | 178 | 3.0 | 9.0 | 0.00 | 0.00 | 0.00 | 50 | 1015.3 |
| 20260906013804 | 79 | 176 | 4.0 | 9.0 | 0.00 | 0.00 | 0.00 | 50 | 1015.3 |
| 20260906013604 | 79 | 175 | 4.0 | 9.0 | 0.00 | 0.00 | 0.00 | 50 | 1015.4 |
| 20260906013404 | 79 | 172 | 5.0 | 9.0 | 0.00 | 0.00 | 0.00 | 50 | 1015.3 |
| 20260906013204 | 79 | 170 | 5.0 | 9.0 | 0.00 | 0.00 | 0.00 | 50 | 1015.3 |
| 20260906013004 | 79 | 168 | 5.0 | 9.0 | 0.00 | 0.00 | 0.00 | 50 | 1015.3 |
| 20260906012804 | 79 | 167 | 7.0 | 10.0 | 0.00 | 0.00 | 0.00 | 50 | 1015.3 |
| 20260906012604 | 79 | 165 | 7.0 | 10.0 | 0.00 | 0.00 | 0.00 | 50 | 1015.4 |
| 20260906012404 | 79 | 164 | 7.0 | 10.0 | 0.00 | 0.00 | 0.00 | 50 | 1015.2 |
| 20260906012204 | 79 | 165 | 7.0 | 10.0 | 0.00 | 0.00 | 0.00 | 50 | 1015.3 |
| 20260906012004 | 79 | 167 | 7.0 | 10.0 | 0.00 | 0.00 | 0.00 | 50 | 1015.3 |
| 20260906011825 | 79 | 166 | 6.0 | 12.0 | 0.00 | 0.00 | 0.00 | 51 | 1015.3 |
| 20260906011604 | 80 | 170 | 6.0 | 12.0 | 0.00 | 0.00 | 0.00 | 51 | 1015.3 |
| 20260906011404 | 80 | 175 | 6.0 | 12.0 | 0.00 | 0.00 | 0.00 | 50 | 1015.4 |
| 20260906011204 | 80 | 180 | 4.0 | 12.0 | 0.00 | 0.00 | 0.00 | 50 | 1015.4 |
| 20260906011004 | 80 | 175 | 6.0 | 12.0 | 0.00 | 0.00 | 0.00 | 50 | 1015.4 |
| 20260906010804 | 80 | 176 | 5.0 | 12.0 | 0.00 | 0.00 | 0.00 | 49 | 1015.4 |
| 20260906010604 | 80 | 174 | 4.0 | 12.0 | 0.00 | 0.00 | 0.00 | 50 | 1015.5 |
| 20260906010404 | 80 | 168 | 5.0 | 13.0 | 0.00 | 0.00 | 0.00 | 50 | 1015.5 |
| 20260906010204 | 80 | 159 | 8.0 | 14.0 | 0.00 | 0.00 | 0.00 | 49 | 1015.6 |
| 20260906010004 | 80 | 154 | 8.0 | 15.0 | 0.00 | 0.00 | 0.00 | 49 | 1015.5 |
| 20260906005804 | 80 | 147 | 6.0 | 17.0 | 0.00 | 0.00 | 0.00 | 49 | 1015.5 |
| 20260906005604 | 80 | 143 | 8.0 | 17.0 | 0.00 | 0.00 | 0.00 | 49 | 1015.6 |
| 20260906005404 | 81 | 141 | 10.0 | 17.0 | 0.00 | 0.00 | 0.00 | 48 | 1015.5 |
| 20260906005204 | 81 | 138 | 8.0 | 17.0 | 0.00 | 0.00 | 0.00 | 48 | 1015.6 |
| 20260906005004 | 81 | 138 | 10.0 | 17.0 | 0.00 | 0.00 | 0.00 | 48 | 1015.6 |
| 20260906004804 | 81 | 136 | 11.0 | 20.0 | 0.00 | 0.00 | 0.00 | 48 | 1015.6 |
| 20260906004604 | 81 | 131 | 12.0 | 20.0 | 0.00 | 0.00 | 0.00 | 47 | 1015.6 |
| 20260906004404 | 81 | 127 | 10.0 | 20.0 | 0.00 | 0.00 | 0.00 | 47 | 1015.6 |
| 20260906004204 | 81 | 124 | 8.0 | 20.0 | 0.00 | 0.00 | 0.00 | 47 | 1015.6 |
| 20260906004004 | 81 | 123 | 12.0 | 20.0 | 0.00 | 0.00 | 0.00 | 46 | 1015.6 |
| 20260906003806 | 81 | 120 | 7.0 | 18.0 | 0.00 | 0.00 | 0.00 | 46 | 1015.6 |
| 20260906003604 | 81 | 118 | 8.0 | 18.0 | 0.00 | 0.00 | 0.00 | 45 | 1015.5 |
| 20260906003425 | 82 | 117 | 7.0 | 18.0 | 0.00 | 0.00 | 0.00 | 44 | 1015.6 |
| 20260906003204 | 82 | 116 | 7.0 | 18.0 | 0.00 | 0.00 | 0.00 | 43 | 1015.6 |
| 20260906003004 | 82 | 119 | 10.0 | 21.0 | 0.00 | 0.00 | 0.00 | 42 | 1015.6 |
| 20260906002804 | 82 | 124 | 9.0 | 24.0 | 0.00 | 0.00 | 0.00 | 42 | 1015.6 |
| 20260906002604 | 82 | 131 | 10.0 | 24.0 | 0.00 | 0.00 | 0.00 | 41 | 1015.6 |
| 20260906002404 | 83 | 136 | 12.0 | 24.0 | 0.00 | 0.00 | 0.00 | 40 | 1015.7 |
| 20260906002225 | 83 | 138 | 13.0 | 24.0 | 0.00 | 0.00 | 0.00 | 40 | 1015.7 |
| 20260906002004 | 83 | 140 | 17.0 | 24.0 | 0.00 | 0.00 | 0.00 | 39 | 1015.7 |
| 20260906001804 | 83 | 141 | 18.0 | 24.0 | 0.00 | 0.00 | 0.00 | 38 | 1015.8 |
| 20260906001604 | 83 | 141 | 17.0 | 22.0 | 0.00 | 0.00 | 0.00 | 37 | 1015.9 |
| 20260906001425 | 83 | 141 | 12.0 | 20.0 | 0.00 | 0.00 | 0.00 | 37 | 1015.9 |
| 20260906001204 | 84 | 145 | 11.0 | 19.0 | 0.00 | 0.00 | 0.00 | 37 | 1015.8 |
| 20260906001004 | 84 | 148 | 11.0 | 22.0 | 0.00 | 0.00 | 0.00 | 37 | 1015.9 |
| 20260906000804 | 84 | 147 | 13.0 | 22.0 | 0.00 | 0.00 | 0.00 | 37 | 1016.0 |
| 20260906000604 | 84 | 143 | 11.0 | 22.0 | 0.00 | 0.00 | 0.00 | 37 | 1015.8 |
| 20260906000404 | 85 | 138 | 12.0 | 22.0 | 0.00 | 0.00 | 0.00 | 36 | 1015.9 |
| 20260906000204 | 85 | 132 | 14.0 | 22.0 | 0.00 | 0.00 | 0.00 | 35 | 1015.9 |
| 20260906000025 | 85 | 126 | 13.0 | 22.0 | 0.00 | 0.00 | 0.00 | 33 | 1016.1 |
| 20260905235804 | 86 | 116 | 8.0 | 16.0 | 0.00 | 0.00 | 0.00 | 31 | 1016.0 |
| 20260905235604 | 86 | 117 | 7.0 | 14.0 | 0.00 | 0.00 | 0.00 | 31 | 1015.8 |
| 20260905235404 | 86 | 118 | 8.0 | 14.0 | 0.00 | 0.00 | 0.00 | 31 | 1015.7 |
| 20260905235204 | 86 | 115 | 7.0 | 14.0 | 0.00 | 0.00 | 0.00 | 31 | 1015.7 |
| 20260905235004 | 86 | 113 | 6.0 | 14.0 | 0.00 | 0.00 | 0.00 | 30 | 1015.6 |
| 20260905234804 | 86 | 114 | 8.0 | 14.0 | 0.00 | 0.00 | 0.00 | 30 | 1015.6 |
| 20260905234604 | 86 | 112 | 7.0 | 14.0 | 0.00 | 0.00 | 0.00 | 31 | 1015.5 |
| 20260905234404 | 86 | 109 | 8.0 | 14.0 | 0.00 | 0.00 | 0.00 | 31 | 1015.5 |
| 20260905234204 | 86 | 106 | 7.0 | 14.0 | 0.00 | 0.00 | 0.00 | 32 | 1015.5 |
| 20260905234004 | 87 | 101 | 8.0 | 14.0 | 0.00 | 0.00 | 0.00 | 31 | 1015.4 |
| 20260905233825 | 87 | 101 | 7.0 | 14.0 | 0.00 | 0.00 | 0.00 | 31 | 1015.3 |
| 20260905233604 | 87 | 100 | 7.0 | 14.0 | 0.00 | 0.00 | 0.00 | 30 | 1015.3 |
| 20260905233425 | 87 | 98 | 5.0 | 10.0 | 0.00 | 0.00 | 0.00 | 30 | 1015.2 |
| 20260905233204 | 87 | 100 | 6.0 | 12.0 | 0.00 | 0.00 | 0.00 | 30 | 1015.1 |
| 20260905233004 | 87 | 104 | 5.0 | 12.0 | 0.00 | 0.00 | 0.00 | 30 | 1015.2 |
| 20260905232804 | 87 | 100 | 6.0 | 13.0 | 0.00 | 0.00 | 0.00 | 30 | 1015.1 |
| 20260905232625 | 87 | 98 | 6.0 | 15.0 | 0.00 | 0.00 | 0.00 | 29 | 1015.1 |
| 20260905232404 | 87 | 103 | 7.0 | 15.0 | 0.00 | 0.00 | 0.00 | 29 | 1015.1 |
| 20260905232204 | 87 | 105 | 6.0 | 15.0 | 0.00 | 0.00 | 0.00 | 29 | 1015.1 |
| 20260905232004 | 87 | 105 | 8.0 | 15.0 | 0.00 | 0.00 | 0.00 | 29 | 1015.1 |
| 20260905231804 | 87 | 113 | 8.0 | 15.0 | 0.00 | 0.00 | 0.00 | 30 | 1015.1 |
| 20260905231604 | 87 | 120 | 6.0 | 14.0 | 0.00 | 0.00 | 0.00 | 31 | 1015.1 |
| 20260905231404 | 87 | 121 | 7.0 | 14.0 | 0.00 | 0.00 | 0.00 | 30 | 1015.1 |
| 20260905231204 | 87 | 121 | 6.0 | 14.0 | 0.00 | 0.00 | 0.00 | 30 | 1015.1 |
| 20260905231004 | 87 | 121 | 8.0 | 14.0 | 0.00 | 0.00 | 0.00 | 32 | 1015.1 |
| 20260905230804 | 87 | 116 | 9.0 | 14.0 | 0.00 | 0.00 | 0.00 | 32 | 1015.2 |
| 20260905230625 | 86 | 111 | 7.0 | 14.0 | 0.00 | 0.00 | 0.00 | 33 | 1015.1 |
| 20260905230404 | 86 | 107 | 5.0 | 14.0 | 0.00 | 0.00 | 0.00 | 34 | 1015.0 |
| 20260905230204 | 86 | 104 | 8.0 | 14.0 | 0.00 | 0.00 | 0.00 | 33 | 1015.1 |
| 20260905230004 | 86 | 102 | 8.0 | 16.0 | 0.00 | 0.00 | 0.00 | 32 | 1015.1 |
| 20260905225804 | 86 | 101 | 5.0 | 16.0 | 0.00 | 0.00 | 0.00 | 31 | 1015.1 |
| 20260905225606 | 86 | 101 | 8.0 | 16.0 | 0.00 | 0.00 | 0.00 | 30 | 1015.1 |
| 20260905225425 | 86 | 101 | 8.0 | 16.0 | 0.00 | 0.00 | 0.00 | 30 | 1015.1 |
| 20260905225204 | 87 | 105 | 9.0 | 16.0 | 0.00 | 0.00 | 0.00 | 30 | 1015.1 |
| 20260905225004 | 87 | 104 | 7.0 | 14.0 | 0.00 | 0.00 | 0.00 | 30 | 1015.0 |
| 20260905224825 | 87 | 104 | 4.0 | 12.0 | 0.00 | 0.00 | 0.00 | 32 | 1015.0 |
| 20260905224604 | 87 | 103 | 5.0 | 12.0 | 0.00 | 0.00 | 0.00 | 32 | 1014.9 |
| 20260905224404 | 87 | 104 | 6.0 | 13.0 | 0.00 | 0.00 | 0.00 | 32 | 1014.9 |
| 20260905224204 | 87 | 103 | 6.0 | 14.0 | 0.00 | 0.00 | 0.00 | 32 | 1014.9 |
| 20260905224004 | 87 | 105 | 7.0 | 14.0 | 0.00 | 0.00 | 0.00 | 31 | 1015.0 |
| 20260905223825 | 88 | 106 | 6.0 | 14.0 | 0.00 | 0.00 | 0.00 | 31 | 1015.0 |
| 20260905223604 | 88 | 107 | 8.0 | 15.0 | 0.00 | 0.00 | 0.00 | 31 | 1014.9 |
| 20260905223404 | 87 | 107 | 7.0 | 15.0 | 0.00 | 0.00 | 0.00 | 30 | 1014.9 |
| 20260905223204 | 87 | 107 | 7.0 | 15.0 | 0.00 | 0.00 | 0.00 | 31 | 1015.0 |
| 20260905223004 | 87 | 107 | 6.0 | 15.0 | 0.00 | 0.00 | 0.00 | 32 | 1014.9 |
| 20260905222804 | 87 | 108 | 8.0 | 15.0 | 0.00 | 0.00 | 0.00 | 32 | 1014.8 |
| 20260905222604 | 87 | 109 | 7.0 | 12.0 | 0.00 | 0.00 | 0.00 | 31 | 1014.9 |
| 20260905222404 | 87 | 109 | 5.0 | 13.0 | 0.00 | 0.00 | 0.00 | 32 | 1014.9 |
| 20260905222204 | 87 | 113 | 5.0 | 13.0 | 0.00 | 0.00 | 0.00 | 33 | 1014.9 |
| 20260905222004 | 87 | 112 | 5.0 | 16.0 | 0.00 | 0.00 | 0.00 | 33 | 1014.8 |
| 20260905221804 | 87 | 110 | 6.0 | 16.0 | 0.00 | 0.00 | 0.00 | 33 | 1014.8 |
| 20260905221604 | 87 | 108 | 7.0 | 16.0 | 0.00 | 0.00 | 0.00 | 32 | 1014.7 |
| 20260905221404 | 88 | 108 | 7.0 | 16.0 | 0.00 | 0.00 | 0.00 | 30 | 1014.8 |
| 20260905221204 | 89 | 104 | 9.0 | 16.0 | 0.00 | 0.00 | 0.00 | 28 | 1014.7 |
| 20260905221025 | 89 | 101 | 8.0 | 16.0 | 0.00 | 0.00 | 0.00 | 29 | 1014.7 |
| 20260905220804 | 89 | 96 | 6.0 | 16.0 | 0.00 | 0.00 | 0.00 | 29 | 1014.8 |
| 20260905220625 | 89 | 96 | 5.0 | 17.0 | 0.00 | 0.00 | 0.00 | 29 | 1014.8 |
| 20260905220404 | 89 | 95 | 8.0 | 17.0 | 0.00 | 0.00 | 0.00 | 28 | 1014.8 |
| 20260905220204 | 89 | 96 | 9.0 | 19.0 | 0.00 | 0.00 | 0.00 | 29 | 1014.8 |
| 20260905220004 | 88 | 99 | 11.0 | 19.0 | 0.00 | 0.00 | 0.00 | 29 | 1014.8 |
| 20260905215825 | 89 | 102 | 10.0 | 19.0 | 0.00 | 0.00 | 0.00 | 28 | 1014.8 |
| 20260905215604 | 90 | 102 | 10.0 | 19.0 | 0.00 | 0.00 | 0.00 | 28 | 1014.7 |
| 20260905215404 | 90 | 102 | 9.0 | 19.0 | 0.00 | 0.00 | 0.00 | 29 | 1014.7 |
| 20260905215204 | 90 | 98 | 12.0 | 19.0 | 0.00 | 0.00 | 0.00 | 29 | 1014.7 |
| 20260905215004 | 90 | 97 | 12.0 | 19.0 | 0.00 | 0.00 | 0.00 | 28 | 1014.7 |
| 20260905214804 | 90 | 97 | 9.0 | 19.0 | 0.00 | 0.00 | 0.00 | 28 | 1014.8 |
| 20260905214604 | 89 | 102 | 8.0 | 20.0 | 0.00 | 0.00 | 0.00 | 30 | 1014.8 |
| 20260905214404 | 88 | 106 | 9.0 | 20.0 | 0.00 | 0.00 | 0.00 | 31 | 1014.9 |
| 20260905214204 | 89 | 111 | 9.0 | 20.0 | 0.00 | 0.00 | 0.00 | 31 | 1015.0 |
| 20260905214004 | 89 | 112 | 9.0 | 20.0 | 0.00 | 0.00 | 0.00 | 30 | 1015.1 |
| 20260905213804 | 90 | 109 | 12.0 | 20.0 | 0.00 | 0.00 | 0.00 | 29 | 1015.0 |
| 20260905213604 | 90 | 107 | 11.0 | 20.0 | 0.00 | 0.00 | 0.00 | 29 | 1015.0 |
| 20260905213404 | 90 | 104 | 12.0 | 20.0 | 0.00 | 0.00 | 0.00 | 30 | 1015.0 |
| 20260905213204 | 89 | 99 | 8.0 | 19.0 | 0.00 | 0.00 | 0.00 | 29 | 1015.1 |
| 20260905213004 | 89 | 98 | 9.0 | 13.0 | 0.00 | 0.00 | 0.00 | 29 | 1015.1 |
| 20260905212804 | 89 | 99 | 7.0 | 10.0 | 0.00 | 0.00 | 0.00 | 29 | 1015.1 |
| 20260905212604 | 89 | 96 | 6.0 | 10.0 | 0.00 | 0.00 | 0.00 | 29 | 1015.1 |
| 20260905212404 | 89 | 91 | 8.0 | 10.0 | 0.00 | 0.00 | 0.00 | 29 | 1015.2 |
| 20260905212204 | 89 | 86 | 4.0 | 6.0 | 0.00 | 0.00 | 0.00 | 29 | 1015.2 |
| 20260905212004 | 89 | 80 | 4.0 | 6.0 | 0.00 | 0.00 | 0.00 | 29 | 1015.2 |
| 20260905211804 | 89 | 67 | 3.0 | 6.0 | 0.00 | 0.00 | 0.00 | 30 | 1015.3 |
| 20260905211604 | 89 | 59 | 3.0 | 6.0 | 0.00 | 0.00 | 0.00 | 29 | 1015.1 |
| 20260905211404 | 89 | 52 | 4.0 | 7.0 | 0.00 | 0.00 | 0.00 | 30 | 1015.1 |
| 20260905211204 | 89 | 53 | 3.0 | 9.0 | 0.00 | 0.00 | 0.00 | 30 | 1015.1 |
| 20260905211004 | 89 | 47 | 4.0 | 9.0 | 0.00 | 0.00 | 0.00 | 30 | 1015.0 |
| 20260905210804 | 89 | 48 | 5.0 | 9.0 | 0.00 | 0.00 | 0.00 | 29 | 1015.1 |
| 20260905210604 | 89 | 45 | 5.0 | 9.0 | 0.00 | 0.00 | 0.00 | 30 | 1015.1 |